LiveATC.Net - Listen to live air traffic control over the Internet!

Find LiveATC Audio Streams


Airport/ARTCC Code

Frequency Search
(e.g., 124.400, 128.75)
Site-wide search
 


Browse LiveATC Feeds
Top 50 LiveATC Feeds
LiveATC Feed Map
Bad Weather Areas

LiveATC FAQ
Offer LiveATC feed
Contact LiveATC.net
Press Inquiries

LiveATC on iPhone
LiveATC on Android

Windows Phone
Windows 8/10

LiveATC Mobile
(Mobile browser)

ATC Audio Archives
Interesting Recordings

LiveATC Forums

Home Page
About LiveATC.net
Make a Donation
Terms of Use
Privacy Policy

Canadian Air Freqs

AIRMETs/SIGMETs

FAA Airport Status
Nat'l Airspace Status
Arrival Demand Charts


Server Software By:
Icecast.org
Liquidsoap

Select an area of interest:
U.S. Feeds: Class B Airports | Class C Airports | Class D/Other Airports | ARTCC (Centers)
International Feeds: Canada | Europe | Oceania | Asia | South America | North/Central America | Africa
Misc Feeds: HF Feeds
Search by ICAO/IATA airport code:   (e.g., kbos, kjfk, lax, eham, etc.)


Currently Available Live Feeds: 2446
Status Updated: Mon May 20 2019 01:36:01 UTC


NOTICE

Unauthorized use prohibited. See LiveATC.net Terms of Service

Europe Airport Feeds

 

EFKK Tower (Archives)
Kronoby, Finland

Feed Status: UP
Listen in your browser - HTML5 player(in browser, HTML5)
Click here to listen with your own player(launches your MP3 player)

EFKK 200120Z AUTO 19006KT 9999 -RA NSC 14/10 Q1016

EFKK Flight Activity (Flightaware)

Listeners: 1 out of 996 total

Kronoby Tower: 120.100

EFKU Tower/Approach (Archives)
Siilinjarvi, Finland

Feed Status: UP
Listen in your browser - HTML5 player(in browser, HTML5)
Click here to listen with your own player(launches your MP3 player)

EFKU 200120Z AUTO 10003KT CAVOK 13/06 Q1019

EFKU Flight Activity (Flightaware)

Listeners: 1 out of 996 total

Kuopio Approach: 130.600
Kuopio Tower: 120.150

Dutch Mil Radar (Archives)
Amsterdam, Netherlands

Feed Status: UP
Listen in your browser - HTML5 player(in browser, HTML5)
Click here to listen with your own player(launches your MP3 player)

EHLE Flight Activity (Flightaware)

Listeners: 0 out of 996 total

Dutch Mil Flight Info: 264.325
Dutch Mil Radar: 128.355
Dutch Mil Radar: 132.350

EHAA Radar ARTIP (Archives)
Amsterdam, Netherlands

Feed Status: UP
Listen in your browser - HTML5 player(in browser, HTML5)
Click here to listen with your own player(launches your MP3 player)

EHAM 200125Z 36005KT 320V040 4500 BR SCT003 BKN004 12/12 Q1007 NOSIG

EHAM Flight Activity (Flightaware)

Listeners: 1 out of 996 total

EHAA Radar Sector 1 ARTIP: 120.550

EHAA Radar East Inbound
Amsterdam, Netherlands

Feed Status: DOWN
Offline since: 2019-03-13 16:57:02 UTC

EHAM 200125Z 36005KT 320V040 4500 BR SCT003 BKN004 12/12 Q1007 NOSIG

EHAA Radar Sector 2 East Inbound: 128.575

EHAA Radar East Outbound (Archives)
Amsterdam, Netherlands

Feed Status: UP
Listen in your browser - HTML5 player(in browser, HTML5)
Click here to listen with your own player(launches your MP3 player)

EHAM 200125Z 36005KT 320V040 4500 BR SCT003 BKN004 12/12 Q1007 NOSIG

EHAM Flight Activity (Flightaware)

Listeners: 1 out of 996 total

EHAA Radar Sector 2 East Outbound: 124.875

EHAA Radar North
Amsterdam, Netherlands

Feed Status: DOWN
Offline since: 2019-03-13 16:59:02 UTC

EHAM 200125Z 36005KT 320V040 4500 BR SCT003 BKN004 12/12 Q1007 NOSIG

EHAA Radar Sector 1 North: 134.375

EHAA Radar Northwest (Archives)
Amsterdam, Netherlands

Feed Status: UP
Listen in your browser - HTML5 player(in browser, HTML5)
Click here to listen with your own player(launches your MP3 player)

EHAM 200125Z 36005KT 320V040 4500 BR SCT003 BKN004 12/12 Q1007 NOSIG

EHAM Flight Activity (Flightaware)

Listeners: 0 out of 996 total

EHAA Radar Sector 5 Northwest: 123.7000

EHAA Radar RIVER
Amsterdam, Netherlands

Feed Status: DOWN
Offline since: 2019-03-13 16:57:02 UTC

EHAM 200125Z 36005KT 320V040 4500 BR SCT003 BKN004 12/12 Q1007 NOSIG

EHAA Radar Sector 3 RIVER: 130.950

EHAA Radar South (Archives)
Amsterdam, Netherlands

Feed Status: UP
Listen in your browser - HTML5 player(in browser, HTML5)
Click here to listen with your own player(launches your MP3 player)

EHAM 200125Z 36005KT 320V040 4500 BR SCT003 BKN004 12/12 Q1007 NOSIG

EHAM Flight Activity (Flightaware)

Listeners: 0 out of 996 total

EHAA Radar Sector 3 South: 123.850

EHAA Radar South (Backup) (Archives)
Amsterdam, Netherlands

Feed Status: UP
Listen in your browser - HTML5 player(in browser, HTML5)
Click here to listen with your own player(launches your MP3 player)

EHAM 200125Z 36005KT 320V040 4500 BR SCT003 BKN004 12/12 Q1007 NOSIG

EHAM Flight Activity (Flightaware)

Listeners: 0 out of 996 total

EHAA Radar Sector 3 South Backup : 127.775

EHAA Radar Southwest (Archives)
Amsterdam, Netherlands

Feed Status: UP
Listen in your browser - HTML5 player(in browser, HTML5)
Click here to listen with your own player(launches your MP3 player)

EHAM 200125Z 36005KT 320V040 4500 BR SCT003 BKN004 12/12 Q1007 NOSIG

EHAM Flight Activity (Flightaware)

Listeners: 0 out of 996 total

EHAA Radar Sector 4 Southwest: 125.750

EHAA Radar SUGOL (Archives)
Amsterdam, Netherlands

Feed Status: UP
Listen in your browser - HTML5 player(in browser, HTML5)
Click here to listen with your own player(launches your MP3 player)

EHAM 200125Z 36005KT 320V040 4500 BR SCT003 BKN004 12/12 Q1007 NOSIG

EHAM Flight Activity (Flightaware)

Listeners: 0 out of 996 total

EHAA Radar Sector 5 SUGOL: 118.800

EHAM Airside Ops Mgr (AOM)
Amsterdam, Netherlands

Feed Status: DOWN
Offline since: 2019-03-13 17:05:02 UTC

EHAM 200125Z 36005KT 320V040 4500 BR SCT003 BKN004 12/12 Q1007 NOSIG

Schiphol Airside Operations Manager: 130.475

EHAM App/Dep Backup (Archives)
Amsterdam, Netherlands

Feed Status: UP
Listen in your browser - HTML5 player(in browser, HTML5)
Click here to listen with your own player(launches your MP3 player)

EHAM 200125Z 36005KT 320V040 4500 BR SCT003 BKN004 12/12 Q1007 NOSIG

EHAM Flight Activity (Flightaware)

Listeners: 0 out of 996 total

Schiphol App/Dep Backup: 118.075

EHAM App/Dep TMA East (Archives)
Amsterdam, Netherlands

Feed Status: UP
Listen in your browser - HTML5 player(in browser, HTML5)
Click here to listen with your own player(launches your MP3 player)

EHAM 200125Z 36005KT 320V040 4500 BR SCT003 BKN004 12/12 Q1007 NOSIG

EHAM Flight Activity (Flightaware)

Listeners: 1 out of 996 total

Amsterdam Approach/Departure TMA East: 119.055

EHAM App/Dep TMA West (Archives)
Amsterdam, Netherlands

Feed Status: UP
Listen in your browser - HTML5 player(in browser, HTML5)
Click here to listen with your own player(launches your MP3 player)

EHAM 200125Z 36005KT 320V040 4500 BR SCT003 BKN004 12/12 Q1007 NOSIG

EHAM Flight Activity (Flightaware)

Listeners: 1 out of 996 total

Amsterdam Approach/Departure TMA West: 121.200

EHAM Apron (North) (Archives)
Amsterdam, Netherlands

Feed Status: UP
Listen in your browser - HTML5 player(in browser, HTML5)
Click here to listen with your own player(launches your MP3 player)

EHAM 200125Z 36005KT 320V040 4500 BR SCT003 BKN004 12/12 Q1007 NOSIG

EHAM Flight Activity (Flightaware)

Listeners: 0 out of 996 total

Schiphol Apron (North): 121.880

EHAM Apron (South) (Archives)
Amsterdam, Netherlands

Feed Status: UP
Listen in your browser - HTML5 player(in browser, HTML5)
Click here to listen with your own player(launches your MP3 player)

EHAM 200125Z 36005KT 320V040 4500 BR SCT003 BKN004 12/12 Q1007 NOSIG

EHAM Flight Activity (Flightaware)

Listeners: 0 out of 996 total

Schiphol Apron (South): 121.780

EHAM Arrival (Primary) (Archives)
Amsterdam, Netherlands

Feed Status: UP
Listen in your browser - HTML5 player(in browser, HTML5)
Click here to listen with your own player(launches your MP3 player)

EHAM 200125Z 36005KT 320V040 4500 BR SCT003 BKN004 12/12 Q1007 NOSIG

EHAM Flight Activity (Flightaware)

Listeners: 1 out of 996 total

Amsterdam Arrival : 118.400

EHAM Arrival (Secondary)
Amsterdam, Netherlands

Feed Status: DOWN
Offline since: 2019-03-13 16:59:02 UTC

EHAM 200125Z 36005KT 320V040 4500 BR SCT003 BKN004 12/12 Q1007 NOSIG

Amsterdam Arrival (Secondary): 131.150

EHAM Arrival (Secondary/Backup)
Amsterdam, Netherlands

Feed Status: DOWN
Offline since: 2019-03-13 16:59:02 UTC

EHAM 200125Z 36005KT 320V040 4500 BR SCT003 BKN004 12/12 Q1007 NOSIG

Amsterdam Arrival (Secondary Backup): 131.275

EHAM Arrival Backup/Discrete (Archives)
Amsterdam, Netherlands

Feed Status: UP
Listen in your browser - HTML5 player(in browser, HTML5)
Click here to listen with your own player(launches your MP3 player)

EHAM 200125Z 36005KT 320V040 4500 BR SCT003 BKN004 12/12 Q1007 NOSIG

EHAM Flight Activity (Flightaware)

Listeners: 0 out of 996 total

Schiphol Arrival Backup: 126.675

EHAM Clearance Delivery (Archives)
Amsterdam, Netherlands

Feed Status: UP
Listen in your browser - HTML5 player(in browser, HTML5)
Click here to listen with your own player(launches your MP3 player)

EHAM 200125Z 36005KT 320V040 4500 BR SCT003 BKN004 12/12 Q1007 NOSIG

EHAM Flight Activity (Flightaware)

Listeners: 0 out of 996 total

Schiphol Clearance Delivery: 121.980

EHAM Ground (Backup) (Archives)
Amsterdam, Netherlands

Feed Status: UP
Listen in your browser - HTML5 player(in browser, HTML5)
Click here to listen with your own player(launches your MP3 player)

EHAM 200125Z 36005KT 320V040 4500 BR SCT003 BKN004 12/12 Q1007 NOSIG

EHAM Flight Activity (Flightaware)

Listeners: 0 out of 996 total

Schiphol Ground (Backup): 122.425

EHAM Ground (North) (Archives)
Amsterdam, Netherlands

Feed Status: UP
Listen in your browser - HTML5 player(in browser, HTML5)
Click here to listen with your own player(launches your MP3 player)

EHAM 200125Z 36005KT 320V040 4500 BR SCT003 BKN004 12/12 Q1007 NOSIG

EHAM Flight Activity (Flightaware)

Listeners: 1 out of 996 total

Schiphol Ground (North): 121.805

EHAM Ground (South) (Archives)
Amsterdam, Netherlands

Feed Status: UP
Listen in your browser - HTML5 player(in browser, HTML5)
Click here to listen with your own player(launches your MP3 player)

EHAM 200125Z 36005KT 320V040 4500 BR SCT003 BKN004 12/12 Q1007 NOSIG

EHAM Flight Activity (Flightaware)

Listeners: 0 out of 996 total

Schiphol Ground (South): 121.705

EHAM Ground (West) (Archives)
Amsterdam, Netherlands

Feed Status: UP
Listen in your browser - HTML5 player(in browser, HTML5)
Click here to listen with your own player(launches your MP3 player)

EHAM 200125Z 36005KT 320V040 4500 BR SCT003 BKN004 12/12 Q1007 NOSIG

EHAM Flight Activity (Flightaware)

Listeners: 0 out of 996 total

Schiphol Ground (West): 121.560

EHAM Info North Sea (North) (Archives)
Amsterdam, Netherlands

Feed Status: UP
Listen in your browser - HTML5 player(in browser, HTML5)
Click here to listen with your own player(launches your MP3 player)

EHAM 200125Z 36005KT 320V040 4500 BR SCT003 BKN004 12/12 Q1007 NOSIG

EHAM Flight Activity (Flightaware)

Listeners: 0 out of 996 total

Amsterdam Info North Sea (North): 119.175

EHAM Info North Sea (Over Land) (Archives)
Amsterdam, Netherlands

Feed Status: UP
Listen in your browser - HTML5 player(in browser, HTML5)
Click here to listen with your own player(launches your MP3 player)

EHAM 200125Z 36005KT 320V040 4500 BR SCT003 BKN004 12/12 Q1007 NOSIG

EHAM Flight Activity (Flightaware)

Listeners: 0 out of 996 total

Amsterdam Info North Sea (Over Land): 124.300

EHAM Info North Sea (South)
Amsterdam, Netherlands

Feed Status: DOWN
Offline since: 2019-03-13 16:57:02 UTC

EHAM 200125Z 36005KT 320V040 4500 BR SCT003 BKN004 12/12 Q1007 NOSIG

Amsterdam Info North Sea (South): 136.650

EHAM Ops (Archives)
Amsterdam, Netherlands

Feed Status: UP
Listen in your browser - HTML5 player(in browser, HTML5)
Click here to listen with your own player(launches your MP3 player)

EHAM 200125Z 36005KT 320V040 4500 BR SCT003 BKN004 12/12 Q1007 NOSIG

EHAM Flight Activity (Flightaware)

Listeners: 0 out of 996 total

Schiphol Ops 1: 465.770
Schiphol Ops 2: 466.470
Schiphol Runway Ops: 447.175

EHAM Schiphol Outbound Planner (Archives)
Amsterdam, Netherlands

Feed Status: UP
Listen in your browser - HTML5 player(in browser, HTML5)
Click here to listen with your own player(launches your MP3 player)

EHAM 200125Z 36005KT 320V040 4500 BR SCT003 BKN004 12/12 Q1007 NOSIG

EHAM Flight Activity (Flightaware)

Listeners: 0 out of 996 total

Schiphol Outbound Planner: 121.655

EHAM Tow Traffic
Amsterdam, Netherlands

Feed Status: DOWN
Offline since: 2019-03-13 17:03:02 UTC

EHAM 200125Z 36005KT 320V040 4500 BR SCT003 BKN004 12/12 Q1007 NOSIG

Schiphol Tow Traffic: 134.875

EHAM Tower (06/24) (Archives)
Amsterdam, Netherlands

Feed Status: UP
Listen in your browser - HTML5 player(in browser, HTML5)
Click here to listen with your own player(launches your MP3 player)

EHAM 200125Z 36005KT 320V040 4500 BR SCT003 BKN004 12/12 Q1007 NOSIG

EHAM Flight Activity (Flightaware)

Listeners: 0 out of 996 total

Schiphol Tower Main 06/24: 118.950

EHAM Tower (18C/36C-27/09) (Archives)
Amsterdam, Netherlands

Feed Status: UP
Listen in your browser - HTML5 player(in browser, HTML5)
Click here to listen with your own player(launches your MP3 player)

EHAM 200125Z 36005KT 320V040 4500 BR SCT003 BKN004 12/12 Q1007 NOSIG

EHAM Flight Activity (Flightaware)

Listeners: 0 out of 996 total

Schiphol Tower Main 18C/36C - 27/09: 118.100

EHAM Tower (18L/36R-22/04) (Archives)
Amsterdam, Netherlands

Feed Status: UP
Listen in your browser - HTML5 player(in browser, HTML5)
Click here to listen with your own player(launches your MP3 player)

EHAM 200125Z 36005KT 320V040 4500 BR SCT003 BKN004 12/12 Q1007 NOSIG

EHAM Flight Activity (Flightaware)

Listeners: 0 out of 996 total

Schiphol Tower Main 18L/36R - 22/04: 119.225

EHAM Tower Backup (Archives)
Amsterdam, Netherlands

Feed Status: UP
Listen in your browser - HTML5 player(in browser, HTML5)
Click here to listen with your own player(launches your MP3 player)

EHAM 200125Z 36005KT 320V040 4500 BR SCT003 BKN004 12/12 Q1007 NOSIG

EHAM Flight Activity (Flightaware)

Listeners: 0 out of 996 total

Schiphol Tower Backup: 119.905

EHAM Tower West (18R/36L) (Archives)
Amsterdam, Netherlands

Feed Status: UP
Listen in your browser - HTML5 player(in browser, HTML5)
Click here to listen with your own player(launches your MP3 player)

EHAM 200125Z 36005KT 320V040 4500 BR SCT003 BKN004 12/12 Q1007 NOSIG

EHAM Flight Activity (Flightaware)

Listeners: 1 out of 996 total

Schiphol Tower West 18R/36L: 118.280

EHBK ATIS (Archives)
Beek, Netherlands

Feed Status: UP
Listen in your browser - HTML5 player(in browser, HTML5)
Click here to listen with your own player(launches your MP3 player)

EHBK 200125Z AUTO 30003KT 270V350 2200 BR FEW001 BKN002 OVC004 12/12 Q1006

EHBK Flight Activity (Flightaware)

Listeners: 0 out of 996 total

Beek ATIS: 124.575

EHBK Gnd/Twr/App (Archives)
Beek, Netherlands

Feed Status: UP
Listen in your browser - HTML5 player(in browser, HTML5)
Click here to listen with your own player(launches your MP3 player)

EHBK 200125Z AUTO 30003KT 270V350 2200 BR FEW001 BKN002 OVC004 12/12 Q1006

EHBK Flight Activity (Flightaware)

Listeners: 0 out of 996 total

Beek Approach: 120.200
Beek Approach: 123.975
Beek Ground: 121.825
Beek Tower: 119.475
Beek Tower: 119.700

MUAC/Eurocontrol Delta High (Archives)
Beek, Netherlands

Feed Status: UP
Listen in your browser - HTML5 player(in browser, HTML5)
Click here to listen with your own player(launches your MP3 player)

EHBK 200125Z AUTO 30003KT 270V350 2200 BR FEW001 BKN002 OVC004 12/12 Q1006

EHBK Flight Activity (Flightaware)

Listeners: 0 out of 996 total

MUAC Delta High Sector: 132.085

MUAC/Eurocontrol Koksy (Archives)
Beek, Netherlands

Feed Status: UP
Listen in your browser - HTML5 player(in browser, HTML5)
Click here to listen with your own player(launches your MP3 player)

EHBK 200125Z AUTO 30003KT 270V350 2200 BR FEW001 BKN002 OVC004 12/12 Q1006

EHBK Flight Activity (Flightaware)

Listeners: 1 out of 996 total

MUAC Koksy Sector: 132.205

MUAC/Eurocontrol Koksy High (Archives)
Beek, Netherlands

Feed Status: UP
Listen in your browser - HTML5 player(in browser, HTML5)
Click here to listen with your own player(launches your MP3 player)

EHBK 200125Z AUTO 30003KT 270V350 2200 BR FEW001 BKN002 OVC004 12/12 Q1006

EHBK Flight Activity (Flightaware)

Listeners: 0 out of 996 total

MUAC Koksy High Sector: 132.755

MUAC/Eurocontrol Lux High (Archives)
Beek, Netherlands

Feed Status: UP
Listen in your browser - HTML5 player(in browser, HTML5)
Click here to listen with your own player(launches your MP3 player)

EHBK 200125Z AUTO 30003KT 270V350 2200 BR FEW001 BKN002 OVC004 12/12 Q1006

EHBK Flight Activity (Flightaware)

Listeners: 0 out of 996 total

MUAC Lux High Sector: 132.315

MUAC/Eurocontrol Lux Low (Archives)
Beek, Netherlands

Feed Status: UP
Listen in your browser - HTML5 player(in browser, HTML5)
Click here to listen with your own player(launches your MP3 player)

EHBK 200125Z AUTO 30003KT 270V350 2200 BR FEW001 BKN002 OVC004 12/12 Q1006

EHBK Flight Activity (Flightaware)

Listeners: 1 out of 996 total

MUAC Lux Low Sector: 133.355

MUAC/Eurocontrol Olno Low (Archives)
Beek, Netherlands

Feed Status: UP
Listen in your browser - HTML5 player(in browser, HTML5)
Click here to listen with your own player(launches your MP3 player)

EHBK 200125Z AUTO 30003KT 270V350 2200 BR FEW001 BKN002 OVC004 12/12 Q1006

EHBK Flight Activity (Flightaware)

Listeners: 0 out of 996 total

MUAC Olno Low Sector: 132.855

MUAC/Eurocontrol Ruhr (Archives)
Beek, Netherlands

Feed Status: UP
Listen in your browser - HTML5 player(in browser, HTML5)
Click here to listen with your own player(launches your MP3 player)

EHBK 200125Z AUTO 30003KT 270V350 2200 BR FEW001 BKN002 OVC004 12/12 Q1006

EHBK Flight Activity (Flightaware)

Listeners: 2 out of 996 total

MUAC Ruhr Sector: 132.515

EHEH Approach #1 (Archives)
Eindhoven, Netherlands

Feed Status: UP
Listen in your browser - HTML5 player(in browser, HTML5)
Click here to listen with your own player(launches your MP3 player)

EHEH 200125Z AUTO 33004KT 260V010 5000 BR OVC005 13/12 Q1007 YLO

EHEH Flight Activity (Flightaware)

Listeners: 0 out of 996 total

Eindhoven Approach: 132.525
Eindhoven Arrival/Director: 124.525
Emergency/Guard: 121.500

EHEH Approach #2 (Archives)
Eindhoven, Netherlands

Feed Status: UP
Listen in your browser - HTML5 player(in browser, HTML5)
Click here to listen with your own player(launches your MP3 player)

EHEH 200125Z AUTO 33004KT 260V010 5000 BR OVC005 13/12 Q1007 YLO

EHEH Flight Activity (Flightaware)

Listeners: 0 out of 996 total

Eindhoven Approach/Arrival: 124.530
Eindhoven Approach/Arrival: 132.530
Eindhoven Approach/Arrival: 278.050

EHEH Ground (Archives)
Eindhoven, Netherlands

Feed Status: UP
Listen in your browser - HTML5 player(in browser, HTML5)
Click here to listen with your own player(launches your MP3 player)

EHEH 200125Z AUTO 33004KT 260V010 5000 BR OVC005 13/12 Q1007 YLO

EHEH Flight Activity (Flightaware)

Listeners: 0 out of 996 total

Eindhoven Ground: 121.930
Eindhoven Ground: 369.250

EHEH Tower #1 (Archives)
Eindhoven, Netherlands

Feed Status: UP
Listen in your browser - HTML5 player(in browser, HTML5)
Click here to listen with your own player(launches your MP3 player)

EHEH 200125Z AUTO 33004KT 260V010 5000 BR OVC005 13/12 Q1007 YLO

EHEH Flight Activity (Flightaware)

Listeners: 0 out of 996 total

Budel Tower: 122.150
Eindhoven Tower: 131.005
Emergency/Guard: 121.500
Generic Tower: 122.100
Volkel Tower: 136.075

EHEH Tower #2 (Archives)
Eindhoven, Netherlands

Feed Status: UP
Listen in your browser - HTML5 player(in browser, HTML5)
Click here to listen with your own player(launches your MP3 player)

EHEH 200125Z AUTO 33004KT 260V010 5000 BR OVC005 13/12 Q1007 YLO

EHEH Flight Activity (Flightaware)

Listeners: 0 out of 996 total

Eindhoven Tower: 122.100
Eindhoven Tower: 131.005
Eindhoven Tower: 281.150

EHGG Approach (Archives)
Groningen, Netherlands

Feed Status: UP
Listen in your browser - HTML5 player(in browser, HTML5)
Click here to listen with your own player(launches your MP3 player)

EHGG 200125Z AUTO 36004KT 320V040 5000 BR NSC 12/12 Q1005

EHGG Flight Activity (Flightaware)

Listeners: 0 out of 996 total

Eelde Approach: 120.305

EHGG ATIS
Groningen, Netherlands

Feed Status: DOWN
Offline since: 2019-03-05 10:16:03 UTC

EHGG 200125Z AUTO 36004KT 320V040 5000 BR NSC 12/12 Q1005

Groningen ATIS: 133.555

EHGG Ground (Archives)
Groningen, Netherlands

Feed Status: UP
Listen in your browser - HTML5 player(in browser, HTML5)
Click here to listen with your own player(launches your MP3 player)

EHGG 200125Z AUTO 36004KT 320V040 5000 BR NSC 12/12 Q1005

EHGG Flight Activity (Flightaware)

Listeners: 0 out of 996 total

Eelde Clearance Delivery/Ground: 121.705

EHGG Guard/Emergency (Archives)
Groningen, Netherlands

Feed Status: UP
Listen in your browser - HTML5 player(in browser, HTML5)
Click here to listen with your own player(launches your MP3 player)

EHGG 200125Z AUTO 36004KT 320V040 5000 BR NSC 12/12 Q1005

EHGG Flight Activity (Flightaware)

Listeners: 0 out of 996 total

Emergency/Guard: 121.500

EHGG Tower (Archives)
Groningen, Netherlands

Feed Status: UP
Listen in your browser - HTML5 player(in browser, HTML5)
Click here to listen with your own player(launches your MP3 player)

EHGG 200125Z AUTO 36004KT 320V040 5000 BR NSC 12/12 Q1005

EHGG Flight Activity (Flightaware)

Listeners: 1 out of 996 total

Eelde Tower: 118.705

MUAC/Eurocontrol (EHGG Area) (Archives)
Groningen, Netherlands

Feed Status: UP
Listen in your browser - HTML5 player(in browser, HTML5)
Click here to listen with your own player(launches your MP3 player)

EHGG 200125Z AUTO 36004KT 320V040 5000 BR NSC 12/12 Q1005

EHGG Flight Activity (Flightaware)

Listeners: 0 out of 996 total

MUAC Holstein High Sector: 132.775
MUAC Holstein Sector: 120.9333
MUAC Javer High Sector: 134.700
MUAC Jever Sector: 136.4666

EHGR Twr/TMA/App (Archives)
Breda, Netherlands

Feed Status: UP
Listen in your browser - HTML5 player(in browser, HTML5)
Click here to listen with your own player(launches your MP3 player)

EHGR 200125Z AUTO 32005KT 280V350 4100 BR SCT008 BKN009 OVC010 13/11 Q1007 GRN

EHGR Flight Activity (Flightaware)

Listeners: 0 out of 996 total

Gilze Rijen Ground: 121.680
Gilze Rijen Tower: 125.330

EHGR Mode-S Tracking
EHEH Mode-S Tracking

EHHV CTAF (Archives)
Hilversum, Netherlands

Feed Status: UP
Listen in your browser - HTML5 player(in browser, HTML5)
Click here to listen with your own player(launches your MP3 player)

EHHV Flight Activity (Flightaware)

Listeners: 0 out of 996 total

Hilversum Radio: 131.025

Dutch Mil Radar (Archives)
Lelystad, Netherlands

Feed Status: UP
Listen in your browser - HTML5 player(in browser, HTML5)
Click here to listen with your own player(launches your MP3 player)

EHLE Flight Activity (Flightaware)

Listeners: 0 out of 996 total

Dutch Mil Flight Info: 264.325
Dutch Mil Radar: 128.355
Dutch Mil Radar: 132.350

EHLE Air to Air (Archives)
Lelystad, Netherlands

Feed Status: UP
Listen in your browser - HTML5 player(in browser, HTML5)
Click here to listen with your own player(launches your MP3 player)

EHLE Flight Activity (Flightaware)

Listeners: 0 out of 996 total

Lelystad Air to Air: 123.450

EHLE Fokker Four (Archives)
Lelystad, Netherlands

Feed Status: UP
Listen in your browser - HTML5 player(in browser, HTML5)
Click here to listen with your own player(launches your MP3 player)

EHLE Flight Activity (Flightaware)

Listeners: 0 out of 996 total

Lelystad Fokker Four: 123.525

EHLE Microlight Aircraft (Archives)
Lelystad, Netherlands

Feed Status: UP
Listen in your browser - HTML5 player(in browser, HTML5)
Click here to listen with your own player(launches your MP3 player)

EHLE Flight Activity (Flightaware)

Listeners: 0 out of 996 total

Lelystad Microlight Aircraft: 123.825

EHLE Radio (Archives)
Lelystad, Netherlands

Feed Status: UP
Listen in your browser - HTML5 player(in browser, HTML5)
Click here to listen with your own player(launches your MP3 player)

EHLE Flight Activity (Flightaware)

Listeners: 0 out of 996 total

Lelystad Radio: 123.680

EHMC/EHML Military/Radar (Archives)
Nieuw-Milligen, Netherlands

Feed Status: UP
Listen in your browser - HTML5 player(in browser, HTML5)
Click here to listen with your own player(launches your MP3 player)

EHMC Flight Activity (Flightaware)

Listeners: 0 out of 996 total

AMCC: 234.000
Belga Radar: 129.325
Command Post: 313.550
Dutch Military Radar: 120.825
Dutch Military Radar: 125.925
Dutch Military Radar: 128.350
GCI: 363.100
Lippe Radar: 131.075
London Mil: 135.275
Meteo: 284.425

Military Mode-S Logs
REACH Flights Europe Mode-S Logs
NOTE: Due to receiver distance only aircraft can be heard

EHMC/EHML Military/Radar (Archives)
Nieuw-Milligen, Netherlands

Feed Status: UP
Listen in your browser - HTML5 player(in browser, HTML5)
Click here to listen with your own player(launches your MP3 player)

EHMC Flight Activity (Flightaware)

Listeners: 0 out of 996 total

AMCC: 234.000
Belga Radar: 129.325
Command Post: 313.550
Dutch Military Radar: 120.825
Dutch Military Radar: 125.925
Dutch Military Radar: 128.350
GCI: 363.100
Lippe Radar: 131.075
London Mil: 135.275
Meteo: 284.425

Military Mode-S Logs
REACH Flights Europe Mode-S Logs
NOTE: Due to receiver distance only aircraft can be heard

EHMM CTAF (Archives)
Middenmeer, Netherlands

Feed Status: UP
Listen in your browser - HTML5 player(in browser, HTML5)
Click here to listen with your own player(launches your MP3 player)

EHMM Flight Activity (Flightaware)

Listeners: 0 out of 996 total

Middenmeer CTAF: 123.425

EHRD Approach (Archives)
Rotterdam, Netherlands

Feed Status: UP
Listen in your browser - HTML5 player(in browser, HTML5)
Click here to listen with your own player(launches your MP3 player)

EHRD 200125Z AUTO 35005KT 300V030 8000 SCT004 OVC006 12/11 Q1007 NOSIG

EHRD Flight Activity (Flightaware)

Listeners: 0 out of 996 total

Rotterdam Approach: 124.535
Rotterdam Approach: 281.050

EHRD Clearance Delivery (Archives)
Rotterdam, Netherlands

Feed Status: UP
Listen in your browser - HTML5 player(in browser, HTML5)
Click here to listen with your own player(launches your MP3 player)

EHRD 200125Z AUTO 35005KT 300V030 8000 SCT004 OVC006 12/11 Q1007 NOSIG

EHRD Flight Activity (Flightaware)

Listeners: 0 out of 996 total

Rotterdam Del/Gnd: 122.180

EHRD Del/Twr (Archives)
Rotterdam, Netherlands

Feed Status: UP
Listen in your browser - HTML5 player(in browser, HTML5)
Click here to listen with your own player(launches your MP3 player)

EHRD 200125Z AUTO 35005KT 300V030 8000 SCT004 OVC006 12/11 Q1007 NOSIG

EHRD Flight Activity (Flightaware)

Listeners: 0 out of 996 total

Rotterdam Del/Gnd: 122.180
Rotterdam Tower: 118.205

EHRD Gnd/Twr/App (Archives)
Rotterdam, Netherlands

Feed Status: UP
Listen in your browser - HTML5 player(in browser, HTML5)
Click here to listen with your own player(launches your MP3 player)

EHRD 200125Z AUTO 35005KT 300V030 8000 SCT004 OVC006 12/11 Q1007 NOSIG

EHRD Flight Activity (Flightaware)

Listeners: 0 out of 996 total

Adam Info: 124.300
Regional Guard: 119.705
Rotterdam Approach: 127.025
Rotterdam Del/Gnd: 122.180
Rotterdam Tower: 118.205
SAR: 123.100
SAR: 282.800

EHRD Tower (Archives)
Rotterdam, Netherlands

Feed Status: UP
Listen in your browser - HTML5 player(in browser, HTML5)
Click here to listen with your own player(launches your MP3 player)

EHRD 200125Z AUTO 35005KT 300V030 8000 SCT004 OVC006 12/11 Q1007 NOSIG

EHRD Flight Activity (Flightaware)

Listeners: 0 out of 996 total

Rotterdam Tower: 118.205
Rotterdam Tower: 362.300

EHRD Twr/App
Rotterdam, Netherlands

Feed Status: DOWN
Offline since: 2019-05-19 21:30:02 UTC

EHRD 200125Z AUTO 35005KT 300V030 8000 SCT004 OVC006 12/11 Q1007 NOSIG

Rotterdam Approach: 127.025
Rotterdam Tower: 118.205

EHRD ADS-B Logs

EHTX Gnd/Twr (Archives)
Texel, Netherlands

Feed Status: UP
Listen in your browser - HTML5 player(in browser, HTML5)
Click here to listen with your own player(launches your MP3 player)

EHTX Flight Activity (Flightaware)

Listeners: 0 out of 996 total

Texel Radio (Ground/Tower): 119.300

EHVL CTAF/Range Control (Archives)
Vlieland, Netherlands

Feed Status: UP
Listen in your browser - HTML5 player(in browser, HTML5)
Click here to listen with your own player(launches your MP3 player)

EHVL 200125Z AUTO 02018KT 0800 DZ VV000 11/11 Q1007 AMB

EHVL Flight Activity (Flightaware)

Listeners: 1 out of 996 total

Cornfield VHF (CTAF): 122.100
Range Controller (Primary): 279.000
Range Controller (Secondary): 369.200
Range Controller VHF: 138.075

EICK Approach/Departure (Archives)
Cork, Ireland

Feed Status: UP
Listen in your browser - HTML5 player(in browser, HTML5)
Click here to listen with your own player(launches your MP3 player)

EICK 200100Z 33009KT 9999 FEW016 08/05 Q1015 NOSIG

EICK Flight Activity (Flightaware)

Listeners: 0 out of 996 total

Cork Approach: 119.900

EICK Gnd/Twr/App/Dep (Archives)
Cork, Ireland

Feed Status: UP
Listen in your browser - HTML5 player(in browser, HTML5)
Click here to listen with your own player(launches your MP3 player)

EICK 200100Z 33009KT 9999 FEW016 08/05 Q1015 NOSIG

EICK Flight Activity (Flightaware)

Listeners: 0 out of 996 total

Cork Approach: 119.900
Cork Ground: 121.850
Cork Tower: 119.300

EICK Ground/Tower (Archives)
Cork, Ireland

Feed Status: UP
Listen in your browser - HTML5 player(in browser, HTML5)
Click here to listen with your own player(launches your MP3 player)

EICK 200100Z 33009KT 9999 FEW016 08/05 Q1015 NOSIG

EICK Flight Activity (Flightaware)

Listeners: 0 out of 996 total

Cork Ground: 121.850
Cork Tower: 119.300

EIDW Approach (Archives)
Dublin, Ireland

Feed Status: UP
Listen in your browser - HTML5 player(in browser, HTML5)
Click here to listen with your own player(launches your MP3 player)

EIDW 200100Z 29008KT 9999 FEW017 BKN250 05/05 Q1014 NOSIG

EIDW Flight Activity (Flightaware)

Listeners: 1 out of 996 total

Dublin Approach: 121.100

EIDW Approach (Final) (Archives)
Dublin, Ireland

Feed Status: UP
Listen in your browser - HTML5 player(in browser, HTML5)
Click here to listen with your own player(launches your MP3 player)

EIDW 200100Z 29008KT 9999 FEW017 BKN250 05/05 Q1014 NOSIG

EIDW Flight Activity (Flightaware)

Listeners: 0 out of 996 total

Dublin Approach (Final): 119.925

EIDW Clearance Delivery (Archives)
Dublin, Ireland

Feed Status: UP
Listen in your browser - HTML5 player(in browser, HTML5)
Click here to listen with your own player(launches your MP3 player)

EIDW 200100Z 29008KT 9999 FEW017 BKN250 05/05 Q1014 NOSIG

EIDW Flight Activity (Flightaware)

Listeners: 0 out of 996 total

Dublin Clearance Delivery: 121.875

EIDW Del/Gnd/Twr/App/Center (Archives)
Dublin, Ireland

Feed Status: UP
Listen in your browser - HTML5 player(in browser, HTML5)
Click here to listen with your own player(launches your MP3 player)

EIDW 200100Z 29008KT 9999 FEW017 BKN250 05/05 Q1014 NOSIG

EIDW Flight Activity (Flightaware)

Listeners: 5 out of 996 total

Dublin Approach: 121.100
Dublin Approach (backup): 119.550
Dublin Centre North: 129.175
Dublin Centre South: 126.250
Dublin Clearance Delivery: 121.875
Dublin FIS: 118.500
Dublin Ground: 121.800
Dublin Tower: 118.600

EIDW Ground (Archives)
Dublin, Ireland

Feed Status: UP
Listen in your browser - HTML5 player(in browser, HTML5)
Click here to listen with your own player(launches your MP3 player)

EIDW 200100Z 29008KT 9999 FEW017 BKN250 05/05 Q1014 NOSIG

EIDW Flight Activity (Flightaware)

Listeners: 0 out of 996 total

Dublin Ground: 121.800

EIDW Ground (North) (Archives)
Dublin, Ireland

Feed Status: UP
Listen in your browser - HTML5 player(in browser, HTML5)
Click here to listen with your own player(launches your MP3 player)

EIDW 200100Z 29008KT 9999 FEW017 BKN250 05/05 Q1014 NOSIG

EIDW Flight Activity (Flightaware)

Listeners: 0 out of 996 total

Dublin Ground (North): 118.750

EIDW Ops
Dublin, Ireland

Feed Status: DOWN
Offline since: 2019-03-07 20:54:03 UTC

EIDW 200100Z 29008KT 9999 FEW017 BKN250 05/05 Q1014 NOSIG

Misc:

EIDW Tower (Archives)
Dublin, Ireland

Feed Status: UP
Listen in your browser - HTML5 player(in browser, HTML5)
Click here to listen with your own player(launches your MP3 player)

EIDW 200100Z 29008KT 9999 FEW017 BKN250 05/05 Q1014 NOSIG

EIDW Flight Activity (Flightaware)

Listeners: 0 out of 996 total

Dublin Tower: 118.600

EIKN Gnd/Twr/App (Archives)
Charlestown, Ireland

Feed Status: UP
Listen in your browser - HTML5 player(in browser, HTML5)
Click here to listen with your own player(launches your MP3 player)

EIKN 191830Z 33013KT 9999 FEW018 SCT054 11/07 Q1014 NOSIG

EIKN Flight Activity (Flightaware)

Listeners: 0 out of 996 total

Connaught Ground: 121.900
Connaught Tower: 130.700
Shannon Low Level: 119.075

Special Note: Sponsored by CAC

EINN Approach/Departure (Archives)
Shannon, Ireland

Feed Status: UP
Listen in your browser - HTML5 player(in browser, HTML5)
Click here to listen with your own player(launches your MP3 player)

EINN 200100Z 28003KT 9999 BKN040 07/06 Q1016 NOSIG

EINN Flight Activity (Flightaware)

Listeners: 0 out of 996 total

Shannon Approach Radar: 121.400
Shannon Low: 124.700

EINN Gnd/Twr/Ops (Archives)
Shannon, Ireland

Feed Status: UP
Listen in your browser - HTML5 player(in browser, HTML5)
Click here to listen with your own player(launches your MP3 player)

EINN 200100Z 28003KT 9999 BKN040 07/06 Q1016 NOSIG

EINN Flight Activity (Flightaware)

Listeners: 0 out of 996 total

Aer Lingus Ops: 131.500
Service Air Ops: 131.450
Shannon Ground: 121.800
Shannon Tower: 118.700
Sig Ops (Pre-Clearance): 131.590

EINN Shannon Control High #1 (Archives)
Shannon, Ireland

Feed Status: UP
Listen in your browser - HTML5 player(in browser, HTML5)
Click here to listen with your own player(launches your MP3 player)

EINN 200100Z 28003KT 9999 BKN040 07/06 Q1016 NOSIG

EINN Flight Activity (Flightaware)

Listeners: 3 out of 996 total

Shannon Clearance (Oceanic only): 121.700
Shannon Control: 134.630
Shannon Control: 134.260
Shannon Control: 119.075
Shannon Control (BABAN/DEVOL Sector): 132.150
Shannon Control (Cork Sector): 131.150
Shannon Control (Shannon Sector): 134.280
Shannon Control (SOTA Sector): 135.600
Shannon Control NOTA: 125.875
Shannon Control NOTA: 122.980
Shannon High Level (SOTA Sector): 135.230
Shanwick Radio: 127.650
Track Information: 133.800

EINN Twr/App #1 (Archives)
Shannon, Ireland

Feed Status: UP
Listen in your browser - HTML5 player(in browser, HTML5)
Click here to listen with your own player(launches your MP3 player)

EINN 200100Z 28003KT 9999 BKN040 07/06 Q1016 NOSIG

EINN Flight Activity (Flightaware)

Listeners: 0 out of 996 total

Aer Lingus Ops: 131.500
Service Air Ops: 131.450
Shannon Approach Radar: 121.400
Shannon Control: Misc
Shannon Ground: 121.800
Shannon Tower: 118.700
Sig Ops (Pre-Clearance): 131.590

ENAT Twr/App/Control (Archives)
Alta, Norway

Feed Status: UP
Listen in your browser - HTML5 player(in browser, HTML5)
Click here to listen with your own player(launches your MP3 player)

ENAT 200050Z AUTO 16005KT 9999 OVC062/// 07/M00 Q1021 RMK WIND 700FT 15015KT

ENAT Flight Activity (Flightaware)

Listeners: 0 out of 996 total

Alta Tower (to boat, Harbour Channel 12): 156.600
Alta Tower (to vehicle): 462.400
Alta Tower/Approach: 120.400
Norway Control: 126.700

ENBO Approach (Archives)
Bodo, Norway

Feed Status: UP
Listen in your browser - HTML5 player(in browser, HTML5)
Click here to listen with your own player(launches your MP3 player)

ENBO 200050Z VRB02KT CAVOK 10/07 Q1014

ENBO Flight Activity (Flightaware)

Listeners: 0 out of 996 total

Bodo Approach: 119.700

ENBO Tower (Archives)
Bodo, Norway

Feed Status: UP
Listen in your browser - HTML5 player(in browser, HTML5)
Click here to listen with your own player(launches your MP3 player)

ENBO 200050Z VRB02KT CAVOK 10/07 Q1014

ENBO Flight Activity (Flightaware)

Listeners: 0 out of 996 total

Bodo Tower: 118.100

ENCN Tower/Approach (Archives)
Kristiansand, Norway

Feed Status: UP
Listen in your browser - HTML5 player(in browser, HTML5)
Click here to listen with your own player(launches your MP3 player)

ENCN 200120Z AUTO 06005KT 9999 FEW038/// 12/12 Q1011

ENCN Flight Activity (Flightaware)

Listeners: 0 out of 996 total

Kjevik Tower: 118.100
Kjevik Tower/Approach: 119.950

ENEV Twr/App/ACC (Archives)
Evenes, Norway

Feed Status: UP
Listen in your browser - HTML5 player(in browser, HTML5)
Click here to listen with your own player(launches your MP3 player)

ENEV 200120Z AUTO 02004KT 9999 BKN160/// 09/05 Q1014 RMK WIND 1400FT VRB03KT

ENEV Flight Activity (Flightaware)

Listeners: 0 out of 996 total

Evenes Approach: 120.100
Evenes Tower: 118.000
Norway ACC (Bodo Sector 25): 126.450

ENGM Approach (Archives)
Oslo, Norway

Feed Status: UP
Listen in your browser - HTML5 player(in browser, HTML5)
Click here to listen with your own player(launches your MP3 player)

ENGM 200120Z 36003KT 9999 1300NE R19R/P2000N R01R/P2000N PRFG FEW000 08/07 Q1014

ENGM Flight Activity (Flightaware)

Listeners: 0 out of 996 total

Oslo Approach: 118.475
Oslo Approach: 120.450

ENKJ RDO (Archives)
Kjeller, Norway

Feed Status: UP
Listen in your browser - HTML5 player(in browser, HTML5)
Click here to listen with your own player(launches your MP3 player)

ENKJ Flight Activity (Flightaware)

Listeners: 0 out of 996 total

Kjeller RDO: 119.100

ENLI CTAF (Archives)
Farsund, Norway

Feed Status: UP
Listen in your browser - HTML5 player(in browser, HTML5)
Click here to listen with your own player(launches your MP3 player)

ENLI Flight Activity (Flightaware)

Listeners: 0 out of 996 total

Lista Traffic/Lista Radio: 126.450

ENRK CTAF (Archives)
Astorp, Norway

Feed Status: UP
Listen in your browser - HTML5 player(in browser, HTML5)
Click here to listen with your own player(launches your MP3 player)

ENRK Flight Activity (Flightaware)

Listeners: 0 out of 996 total

Rakkestad CTAF: 122.950

ENOR Sector 8 (Archives)
Moss, Norway

Feed Status: UP
Listen in your browser - HTML5 player(in browser, HTML5)
Click here to listen with your own player(launches your MP3 player)

ENOR Flight Activity (Flightaware)

Listeners: 0 out of 996 total

Norway Center (FIR) Sector 8: 118.875

ENRY Tower (Archives)
Moss, Norway

Feed Status: UP
Listen in your browser - HTML5 player(in browser, HTML5)
Click here to listen with your own player(launches your MP3 player)

ENRY 200120Z 01005KT CAVOK 11/10 Q1013

ENRY Flight Activity (Flightaware)

Listeners: 0 out of 996 total

Rygge Tower: 119.500

ENSO AFIS (Archives)
Stord, Norway

Feed Status: UP
Listen in your browser - HTML5 player(in browser, HTML5)
Click here to listen with your own player(launches your MP3 player)

ENSO 191720Z 33005KT CAVOK 17/09 Q1012

ENSO Flight Activity (Flightaware)

Listeners: 0 out of 996 total

Stord AFIS: 120.200

Feed sponsored by:

ENTC Tower/App (Archives)
Langnes, Norway

Feed Status: UP
Listen in your browser - HTML5 player(in browser, HTML5)
Click here to listen with your own player(launches your MP3 player)

ENTC 200050Z 09003KT 050V110 CAVOK 07/03 Q1016 RMK WIND 2600FT 15008KT

ENTC Flight Activity (Flightaware)

Listeners: 0 out of 996 total

Langnes Tower: 118.300
Langnes VDF (Approach): 123.750

ENTO Tower/App (Archives)
Sandefjord, Norway

Feed Status: UP
Listen in your browser - HTML5 player(in browser, HTML5)
Click here to listen with your own player(launches your MP3 player)

ENTO 200120Z AUTO 01005KT 9999 NCD 11/11 Q1013

ENTO Flight Activity (Flightaware)

Listeners: 0 out of 996 total

ENJB Tonsberg Airport - Jarlsberg - CTAF: 122.300
Farris Approach (TCA): 134.050
Sandefjord Tower: 118.650

ENVA Gnd/Twr/App (Archives)
Trondheim, Norway

Feed Status: UP
Listen in your browser - HTML5 player(in browser, HTML5)
Click here to listen with your own player(launches your MP3 player)

ENVA 200050Z 12007KT 9999 BKN045 12/08 Q1013 RMK WIND 670FT 19003KT

ENVA Flight Activity (Flightaware)

Listeners: 0 out of 996 total

Trondheim Approach: 118.600
Trondheim Ground: 121.600
Trondheim Tower: 119.400

ENZV Gnd/Twr/App (Archives)
Stavanger, Norway

Feed Status: UP
Listen in your browser - HTML5 player(in browser, HTML5)
Click here to listen with your own player(launches your MP3 player)

ENZV 200120Z 00000KT CAVOK 13/11 Q1012

ENZV Flight Activity (Flightaware)

Listeners: 0 out of 1009 total

Sola Approach/Departure: 119.600
Sola Ground: 121.750
Sola Tower: 118.350

EPGD Tower/Approach (Archives)
Gdansk, Poland

Feed Status: UP
Listen in your browser - HTML5 player(in browser, HTML5)
Click here to listen with your own player(launches your MP3 player)

EPGD 200100Z 13005KT 5000 BR NSC 13/13 Q1008

EPGD Flight Activity (Flightaware)

Listeners: 0 out of 1009 total

Gdansk Approach: 127.275
Gdansk Tower: 118.100

EPKK Tower/App (Archives)
Krakow, Poland

Feed Status: UP
Listen in your browser - HTML5 player(in browser, HTML5)
Click here to listen with your own player(launches your MP3 player)

EPKK 200100Z 07005KT CAVOK 15/14 Q1004

EPKK Flight Activity (Flightaware)

Listeners: 0 out of 1009 total

Krakow Approach: 121.075
Krakow Approach: 123.258
Krakow Tower: 123.250

EPKR CTAF
Krosno, Poland

Feed Status: DOWN
Offline since: 2019-05-18 18:45:02 UTC

Krosno CTAF: 122.400

EPKT Del/Twr/App (Archives)
Katowice, Poland

Feed Status: UP
Listen in your browser - HTML5 player(in browser, HTML5)
Click here to listen with your own player(launches your MP3 player)

EPKT 200100Z 07003KT 8000 NSC 11/11 Q1004

EPKT Flight Activity (Flightaware)

Listeners: 0 out of 1009 total

Katowice Delivery: 121.800
Katowice Tower: 129.250
Krakow Approach: 135.400
Krakow Approach: 121.075

EPKT Delivery/Approach (Archives)
Katowice, Poland

Feed Status: UP
Listen in your browser - HTML5 player(in browser, HTML5)
Click here to listen with your own player(launches your MP3 player)

EPKT 200100Z 07003KT 8000 NSC 11/11 Q1004

EPKT Flight Activity (Flightaware)

Listeners: 0 out of 1009 total

Katowice Delivery: 121.800
Krakow Approach: 121.075

EPKT Tower/Approach (Archives)
Katowice, Poland

Feed Status: UP
Listen in your browser - HTML5 player(in browser, HTML5)
Click here to listen with your own player(launches your MP3 player)

EPKT 200100Z 07003KT 8000 NSC 11/11 Q1004

EPKT Flight Activity (Flightaware)

Listeners: 1 out of 1009 total

Katowice Tower: 129.250
Krakow Approach: 135.400

EPLL Tower (Archives)
Lodz, Poland

Feed Status: UP
Listen in your browser - HTML5 player(in browser, HTML5)
Click here to listen with your own player(launches your MP3 player)

EPLL 200100Z 08006KT CAVOK 15/14 Q1005

EPLL Flight Activity (Flightaware)

Listeners: 1 out of 1009 total

Lodz Tower: 124.230

EPPO Twr/App/FIS (Archives)
Poznan, Poland

Feed Status: UP
Listen in your browser - HTML5 player(in browser, HTML5)
Click here to listen with your own player(launches your MP3 player)

EPPO 200100Z 09005KT CAVOK 14/13 Q1005 R10/29//95

EPPO Flight Activity (Flightaware)

Listeners: 0 out of 1009 total

Poznan Approach: 129.025
Poznan Approach: 127.225
Poznan FIS: 126.300
Poznan Tower: 119.975

Sponsored by: GearUp!

EPRZ Del/Twr/EPWW Radar
Jasionka, Poland

Feed Status: DOWN
Offline since: 2019-05-19 16:41:01 UTC

EPRZ 200100Z 09008KT CAVOK 16/15 Q1005

EPWW Radar: 134.175
EPWW Radar: 120.950
Rzeszow Delivery: 121.800
Rzeszow Tower: 126.800

EPWA Approach #1 (Archives)
Warsaw, Poland

Feed Status: UP
Listen in your browser - HTML5 player(in browser, HTML5)
Click here to listen with your own player(launches your MP3 player)

EPWA 200100Z 10008KT 060V120 CAVOK 17/16 Q1007 NOSIG

EPWA Flight Activity (Flightaware)

Listeners: 1 out of 1009 total

Warsaw Approach: 128.800

EPWA Approach #2 (Archives)
Warsaw, Poland

Feed Status: UP
Listen in your browser - HTML5 player(in browser, HTML5)
Click here to listen with your own player(launches your MP3 player)

EPWA 200100Z 10008KT 060V120 CAVOK 17/16 Q1007 NOSIG

EPWA Flight Activity (Flightaware)

Listeners: 0 out of 1009 total

Warsaw Approach: 125.050

EPWA Clearance Delivery (Archives)
Warsaw, Poland

Feed Status: UP
Listen in your browser - HTML5 player(in browser, HTML5)
Click here to listen with your own player(launches your MP3 player)

EPWA 200100Z 10008KT 060V120 CAVOK 17/16 Q1007 NOSIG

EPWA Flight Activity (Flightaware)

Listeners: 0 out of 1009 total

Warsaw Clearance Delivery: 121.600

EPWA Director (Archives)
Warsaw, Poland

Feed Status: UP
Listen in your browser - HTML5 player(in browser, HTML5)
Click here to listen with your own player(launches your MP3 player)

EPWA 200100Z 10008KT 060V120 CAVOK 17/16 Q1007 NOSIG

EPWA Flight Activity (Flightaware)

Listeners: 0 out of 1009 total

Warsaw Director: 129.375

EPWA Ground (Archives)
Warsaw, Poland

Feed Status: UP
Listen in your browser - HTML5 player(in browser, HTML5)
Click here to listen with your own player(launches your MP3 player)

EPWA 200100Z 10008KT 060V120 CAVOK 17/16 Q1007 NOSIG

EPWA Flight Activity (Flightaware)

Listeners: 0 out of 1009 total

Warsaw Ground: 121.900

EPWA Tower #1 (Archives)
Warsaw, Poland

Feed Status: UP
Listen in your browser - HTML5 player(in browser, HTML5)
Click here to listen with your own player(launches your MP3 player)

EPWA 200100Z 10008KT 060V120 CAVOK 17/16 Q1007 NOSIG

EPWA Flight Activity (Flightaware)

Listeners: 0 out of 1009 total

Warsaw Tower: 118.300

EPWA Tower #2 (Archives)
Warsaw, Poland

Feed Status: UP
Listen in your browser - HTML5 player(in browser, HTML5)
Click here to listen with your own player(launches your MP3 player)

EPWA 200100Z 10008KT 060V120 CAVOK 17/16 Q1007 NOSIG

EPWA Flight Activity (Flightaware)

Listeners: 1 out of 1009 total

Warsaw Tower: 118.300

Audio provided by: datahouse.pl

EPWR Tower (Archives)
Wroclaw, Poland

Feed Status: UP
Listen in your browser - HTML5 player(in browser, HTML5)
Click here to listen with your own player(launches your MP3 player)

EPWR 200100Z VRB01KT 9999 MIFG NSC 12/11 Q1004

EPWR Flight Activity (Flightaware)

Listeners: 0 out of 1009 total

Wroclaw Tower: 120.250

EPWR Twr/App (Archives)
Wroclaw, Poland

Feed Status: UP
Listen in your browser - HTML5 player(in browser, HTML5)
Click here to listen with your own player(launches your MP3 player)

EPPO 200100Z 09005KT CAVOK 14/13 Q1005 R10/29//95

EPPO Flight Activity (Flightaware)

Listeners: 1 out of 1009 total

Poznan Approach (South): 127.225

EPRZ Del/Twr/EPWW Radar (Archives)
Jasionka, Poland

Feed Status: UP
Listen in your browser - HTML5 player(in browser, HTML5)
Click here to listen with your own player(launches your MP3 player)

EPRZ 200100Z 09008KT CAVOK 16/15 Q1005

EPRZ Flight Activity (Flightaware)

Listeners: out of 1009 total

EPWW Radar: 134.175
EPWW Radar: 120.950
Rzeszow Delivery: 121.800
Rzeszow Tower: 126.800

ESDF Ronneby Control (Archives)
Ronneby, Sweden

Feed Status: UP
Listen in your browser - HTML5 player(in browser, HTML5)
Click here to listen with your own player(launches your MP3 player)

ESDF 200120Z AUTO 08006KT 9999 SCT006/// OVC021/// 14/13 Q1008

ESDF Flight Activity (Flightaware)

Listeners: 0 out of 1009 total

Ronneby Control: 128.450

ESGG Gnd/Twr/Control (Archives)
Gothenburg, Sweden

Feed Status: UP
Listen in your browser - HTML5 player(in browser, HTML5)
Click here to listen with your own player(launches your MP3 player)

ESGG 200120Z 35007KT 5000 -RA SCT002 OVC051 13/12 Q1009

ESGG Flight Activity (Flightaware)

Listeners: 0 out of 1009 total

Emergency/Guard: 121.500
Goteborg Arrival: 120.125
Goteborg Control: 124.675
Goteborg Control: 124.200
Landvetter Ground: 121.900
Landvetter Tower: 118.605

ESMQ Tower (Archives)
Kalmar, Sweden

Feed Status: UP
Listen in your browser - HTML5 player(in browser, HTML5)
Click here to listen with your own player(launches your MP3 player)

ESMQ 200120Z AUTO 02004KT 7000 BR FEW005/// BKN072/// 11/11 Q1008

ESMQ Flight Activity (Flightaware)

Listeners: 0 out of 1009 total

Kalmar Tower: 130.805

ESOW Twr/CTAF/Control (Archives)
Stockholm, Sweden

Feed Status: UP
Listen in your browser - HTML5 player(in browser, HTML5)
Click here to listen with your own player(launches your MP3 player)

ESOW 200120Z AUTO 36006KT 3700 BR BKN003/// 14/13 Q1012

ESOW Flight Activity (Flightaware)

Listeners: 2 out of 1009 total

Arlanda Approach: 123.750
Arlanda Approach: 126.655
Arlanda Approach: 130.325
Arlanda Departure: 124.100
Arlanda Tower: 118.505
Arlanda Tower: 128.725
Enkoping/Langtora: 123.525
Eskilstuna: 126.850
Frolunda: 123.400
Johannisberg CTAF: 123.650
Ska Edeby: 123.350
Stockholm Control: 120.155
Stockholm Control: 118.405
Stockholm Control: 118.280
Sweden Control: 133.260
Sweden Control: 129.175
Sweden Control: 131.130
Uppsala Tower: 119.200
Uppsala/Sundbro: 123.350
Vasteras Control: 125.955
Vasteras Tower: 130.600

ESPA Twr/Control (Archives)
Lulea, Sweden

Feed Status: UP
Listen in your browser - HTML5 player(in browser, HTML5)
Click here to listen with your own player(launches your MP3 player)

ESPA 200120Z AUTO 16001KT 9999 OVC110/// 10/06 Q1015

ESPA Flight Activity (Flightaware)

Listeners: 0 out of 1009 total

Emergency/Guard: 121.500
Kallax Control: 125.450
Kallax Tower: 128.200
Sweden Control North: 131.050

ESSG Misc (Archives)
Ludvika, Sweden

Feed Status: UP
Listen in your browser - HTML5 player(in browser, HTML5)
Click here to listen with your own player(launches your MP3 player)

ESSG Flight Activity (Flightaware)

Listeners: 0 out of 1009 total

Avesta, Gagnef, Siljansnas: 123.550
Borlange Tower: 127.300
Dala-Jarna: 123.350
Emergency/Guard: 121.500
Karlstad: 119.450
Koping, Arboga, Borberg: 123.150
Ludvika CTAF: 122.100
Mora: 129.850
Orebro: 120.275
Orsa: 123.400
Soaring Freq: 123.500
Sweden Control: 131.125
Sweden Control: 129.175
Sweden Control: 118.200
Sweden Control: 132.150

ESSL Twr/App/Control (Archives)
Linkoping, Sweden

Feed Status: UP
Listen in your browser - HTML5 player(in browser, HTML5)
Click here to listen with your own player(launches your MP3 player)

ESSL 200120Z AUTO 06002KT 5000 BR FEW110/// BKN160/// 13/13 Q1010

ESSL Flight Activity (Flightaware)

Listeners: 0 out of 1009 total

Emergency/Guard: 121.500
Linkoping Tower: 118.800
Linkoping Tower (Secondary): 123.400
Ostgota Control: 127.350
Ostgota Control: 126.400
Ostgota Control: 135.850
Ostgota Control: 132.950
Ostgota Control: 128.700
Ostgota Control (Malmen Sector): 133.100
Ostgota Control/Sweden Control: 118.400

ESVQ CTAF (Archives)
Koping, Sweden

Feed Status: UP
Listen in your browser - HTML5 player(in browser, HTML5)
Click here to listen with your own player(launches your MP3 player)

ESVQ Flight Activity (Flightaware)

Listeners: 0 out of 1009 total

Koping CTAF: 123.150

EVLA AFIS (Archives)
Liepaja, Latvia

Feed Status: UP
Listen in your browser - HTML5 player(in browser, HTML5)
Click here to listen with your own player(launches your MP3 player)

EVLA 200120Z AUTO 09003KT 9999 SCT160/// 16/11 Q1010

EVLA Flight Activity (Flightaware)

Listeners: 0 out of 1009 total

Liepaja AFIS: 129.400

EVRA Approach (Archives)
Riga, Latvia

Feed Status: UP
Listen in your browser - HTML5 player(in browser, HTML5)
Click here to listen with your own player(launches your MP3 player)

EVLA 200120Z AUTO 09003KT 9999 SCT160/// 16/11 Q1010

EVLA Flight Activity (Flightaware)

Listeners: 0 out of 1009 total

Riga Approach: 129.925

EVRA Approach (Archives)
Riga, Latvia

Feed Status: UP
Listen in your browser - HTML5 player(in browser, HTML5)
Click here to listen with your own player(launches your MP3 player)

EVRA 200120Z 18007KT CAVOK 18/09 Q1014 NOSIG

EVRA Flight Activity (Flightaware)

Listeners: 0 out of 1009 total

Riga Approach: 129.925

EVRA CTAF (Archives)
Riga, Latvia

Feed Status: UP
Listen in your browser - HTML5 player(in browser, HTML5)
Click here to listen with your own player(launches your MP3 player)

EVRA 200120Z 18007KT CAVOK 18/09 Q1014 NOSIG

EVRA Flight Activity (Flightaware)

Listeners: 0 out of 1009 total

Riga Approach (evenings): 134.850
Riga CTAF: 123.950

EVRA FIC (Archives)
Riga, Latvia

Feed Status: UP
Listen in your browser - HTML5 player(in browser, HTML5)
Click here to listen with your own player(launches your MP3 player)

EVRA 200120Z 18007KT CAVOK 18/09 Q1014 NOSIG

EVRA Flight Activity (Flightaware)

Listeners: 0 out of 1009 total

Riga FIC: 120.225

EVRA FIC (Archives)
Riga, Latvia

Feed Status: UP
Listen in your browser - HTML5 player(in browser, HTML5)
Click here to listen with your own player(launches your MP3 player)

EVLA 200120Z AUTO 09003KT 9999 SCT160/// 16/11 Q1010

EVLA Flight Activity (Flightaware)

Listeners: 0 out of 1009 total

Riga FIC: 120.225

EVRA Tower/Guard (Archives)
Riga, Latvia

Feed Status: UP
Listen in your browser - HTML5 player(in browser, HTML5)
Click here to listen with your own player(launches your MP3 player)

EVRA 200120Z 18007KT CAVOK 18/09 Q1014 NOSIG

EVRA Flight Activity (Flightaware)

Listeners: 0 out of 1009 total

Emergency/Guard: 121.500
Riga Tower: 118.100

EYPA Tower (Archives)
Palanga, Lithuania

Feed Status: UP
Listen in your browser - HTML5 player(in browser, HTML5)
Click here to listen with your own player(launches your MP3 player)

EVLA 200120Z AUTO 09003KT 9999 SCT160/// 16/11 Q1010

EVLA Flight Activity (Flightaware)

Listeners: 0 out of 1009 total

Palanga Tower: 124.300

EYVI Twr/App/Misc (Archives)
Vilnius, Lithuania

Feed Status: UP
Listen in your browser - HTML5 player(in browser, HTML5)
Click here to listen with your own player(launches your MP3 player)

EYVI 200122Z 14006KT CAVOK 17/08 Q1014 NOSIG

EYVI Flight Activity (Flightaware)

Listeners: 0 out of 1009 total

Emergency / GUARD: 121.500
FlyLAL, AirBaltic transit services: 131.900
FlyLAL, AirBaltic transit services: 131.600
FlyLAL, AirBaltic transit services: 131.500
Kaunas Approach (EYKA): 124.200
Vilnius Approach: 120.700
Vilnius Control: 132.275
Vilnius Control: 133.425
Vilnius Control: 133.300
Vilnius FIS: 123.850
Vilnius Tower: 118.200
Zokniai A/G (mil): 122.775

EYVP CTAF (Archives)
Paluknys, Lithuania

Feed Status: UP
Listen in your browser - HTML5 player(in browser, HTML5)
Click here to listen with your own player(launches your MP3 player)

EYVP Flight Activity (Flightaware)

Listeners: 0 out of 1009 total

EYVP Paluknis CTAF: 119.100

LATI Twr/App/ACC (Archives)
Tirana, Albania

Feed Status: UP
Listen in your browser - HTML5 player(in browser, HTML5)
Click here to listen with your own player(launches your MP3 player)

LATI 200120Z 19005KT 9999 SCT024 BKN098 16/14 Q1009 NOSIG

LATI Flight Activity (Flightaware)

Listeners: 0 out of 1009 total

Tirana Approach/Departure: 133.150
Tirana Approach/Departure: 131.075
Tirana Tower: 122.500
Tirana Tower: 123.500

LBBG Twr/App
Burgas, Bulgaria

Feed Status: DOWN
Offline since: 2019-05-19 18:18:03 UTC

LBBG 200130Z 00000KT CAVOK 17/16 Q1009 NOSIG

Burgas Approach: 125.100
Burgas Tower: 118.000

LBSF Sofia Control East (Archives)
Sofia, Bulgaria

Feed Status: UP
Listen in your browser - HTML5 player(in browser, HTML5)
Click here to listen with your own player(launches your MP3 player)

LBSF 200130Z 08003KT CAVOK 13/09 Q1008 NOSIG

LBSF Flight Activity (Flightaware)

Listeners: 1 out of 1009 total

Sofia Control (East/Middle Sector): 129.100
Sofia Control (Varna Sector): 134.700

LBSF Twr/App #1 (Archives)
Sofia, Bulgaria

Feed Status: UP
Listen in your browser - HTML5 player(in browser, HTML5)
Click here to listen with your own player(launches your MP3 player)

LBSF 200130Z 08003KT CAVOK 13/09 Q1008 NOSIG

LBSF Flight Activity (Flightaware)

Listeners: 0 out of 1009 total

Sofia Approach: 123.700
Sofia Approach: 129.900
Sofia Tower: 118.100
Sofia Tower: 120.200

LBSF Twr/App #2 (Archives)
Sofia, Bulgaria

Feed Status: UP
Listen in your browser - HTML5 player(in browser, HTML5)
Click here to listen with your own player(launches your MP3 player)

LBSF 200130Z 08003KT CAVOK 13/09 Q1008 NOSIG

LBSF Flight Activity (Flightaware)

Listeners: 0 out of 1009 total

Sofia Approach: 123.700
Sofia Tower: 118.100

LBWN Tower/Approach (Archives)
Varna, Bulgaria

Feed Status: UP
Listen in your browser - HTML5 player(in browser, HTML5)
Click here to listen with your own player(launches your MP3 player)

LBWN 200130Z 10003KT 040V140 CAVOK 16/14 Q1008 NOSIG

LBWN Flight Activity (Flightaware)

Listeners: 0 out of 1009 total

Varna Approach: 121.000
Varna Tower: 119.500

Bordeaux Control (Archives)
Bordeaux, France

Feed Status: UP
Listen in your browser - HTML5 player(in browser, HTML5)
Click here to listen with your own player(launches your MP3 player)

LFBD 200100Z AUTO 26004KT 230V290 9999 SCT014 BKN020 BKN026 11/10 Q1013 TEMPO BKN010

LFBD Flight Activity (Flightaware)

Listeners: 0 out of 1009 total

Air to Air: 123.450
Bordeaux Control BN FL<300: 127.675
Bordeaux Control L3 FL>300: 134.250
Bordeaux Control R2 FL>300: 133.575
Emergency/Guard: 121.500

NOTE: In case of garbled sound, please refresh the player.

LFBU/LFBL Tower
Limoges, France

Feed Status: DOWN
Offline since: 2018-11-19 20:05:05 UTC

LFBU 200100Z AUTO 26006KT 1900 BR VV/// 11/11 Q1012

LFBL Limoges Tower: 124.055
LFBU Angouleme Tower: 123.150
Medoc: 124.325

Bordeaux Control (Archives)
Angouleme, France

Feed Status: UP
Listen in your browser - HTML5 player(in browser, HTML5)
Click here to listen with your own player(launches your MP3 player)

LFBD 200100Z AUTO 26004KT 230V290 9999 SCT014 BKN020 BKN026 11/10 Q1013 TEMPO BKN010

LFBD Flight Activity (Flightaware)

Listeners: 0 out of 1009 total

Air to Air: 123.450
Bordeaux Control BN FL<300: 127.675
Bordeaux Control L3 FL>300: 134.250
Bordeaux Control R2 FL>300: 133.575
Emergency/Guard: 121.500

NOTE: In case of garbled sound, please refresh the player.

LFBZ Tower (Archives)
Biarritz, France

Feed Status: UP
Listen in your browser - HTML5 player(in browser, HTML5)
Click here to listen with your own player(launches your MP3 player)

LFBZ 200100Z AUTO 22004KT 160V270 9999 BKN016 BKN023 OVC038 12/10 Q1015 TEMPO 4000 SHRA BKN010 BKN015TCU

LFBZ Flight Activity (Flightaware)

Listeners: 0 out of 1009 total


LFLL Tower (Archives)
Lyon, France

Feed Status: UP
Listen in your browser - HTML5 player(in browser, HTML5)
Click here to listen with your own player(launches your MP3 player)

LFLL 200100Z 31008KT 9999 BKN032 14/11 Q1007 NOSIG

LFLL Flight Activity (Flightaware)

Listeners: 0 out of 1009 total

Lyon Tower: 120.450

Lyon FIS (Archives)
Lyon, France

Feed Status: UP
Listen in your browser - HTML5 player(in browser, HTML5)
Click here to listen with your own player(launches your MP3 player)

LFLL 200100Z 31008KT 9999 BKN032 14/11 Q1007 NOSIG

LFLL Flight Activity (Flightaware)

Listeners: 0 out of 1009 total

Lyon FIS: 135.200

LFLP Twr/LFLB App
Annecy, France

Feed Status: DOWN
Offline since: 2019-05-19 17:38:03 UTC

LFLP 200100Z AUTO 23001KT 5000 -RA BR BKN014 BKN032 OVC038 11/11 Q1006

Annecy Tower: 118.200
Chambery Approach: 121.200
Chambery Info: 123.700

NOTE: Reception might be deteriorated due to terrain surrounding feed

LFLY Tower (Archives)
Bron, France

Feed Status: UP
Listen in your browser - HTML5 player(in browser, HTML5)
Click here to listen with your own player(launches your MP3 player)

LFLY 200100Z AUTO 31010KT 9999 OVC040 14/10 Q1007 NOSIG

LFLY Flight Activity (Flightaware)

Listeners: 0 out of 1009 total

Lyon-Bron Tower: 118.100

Lyon FIS (Archives)
Bron, France

Feed Status: UP
Listen in your browser - HTML5 player(in browser, HTML5)
Click here to listen with your own player(launches your MP3 player)

LFLL 200100Z 31008KT 9999 BKN032 14/11 Q1007 NOSIG

LFLL Flight Activity (Flightaware)

Listeners: 0 out of 1009 total

Lyon FIS: 135.200

LFMD Ground/Tower (Archives)
Cannes, France

Feed Status: UP
Listen in your browser - HTML5 player(in browser, HTML5)
Click here to listen with your own player(launches your MP3 player)

LFMD 200100Z AUTO VRB02KT 9000 FEW003 SCT150 BKN180 11/11 Q1005

LFMD Flight Activity (Flightaware)

Listeners: 0 out of 1009 total

Cannes Ground: 121.800
Cannes Tower: 118.625

LFMN Approach (Archives)
Nice, France

Feed Status: UP
Listen in your browser - HTML5 player(in browser, HTML5)
Click here to listen with your own player(launches your MP3 player)

LFMN 200100Z 33006KT 9999 FEW073 SCT150 BKN230 13/11 Q1005 NOSIG

LFMN Flight Activity (Flightaware)

Listeners: 0 out of 1009 total

Nice Approach: 124.175

LFMN Control (High) (Archives)
Nice, France

Feed Status: UP
Listen in your browser - HTML5 player(in browser, HTML5)
Click here to listen with your own player(launches your MP3 player)

LFMN 200100Z 33006KT 9999 FEW073 SCT150 BKN230 13/11 Q1005 NOSIG

LFMN Flight Activity (Flightaware)

Listeners: 0 out of 1009 total

Marseille Control Sector K1 (FL245-FL305): 126.780

LFMN FIS/Approach (Archives)
Nice, France

Feed Status: UP
Listen in your browser - HTML5 player(in browser, HTML5)
Click here to listen with your own player(launches your MP3 player)

LFMN 200100Z 33006KT 9999 FEW073 SCT150 BKN230 13/11 Q1005 NOSIG

LFMN Flight Activity (Flightaware)

Listeners: 0 out of 1009 total

Nice FIS/Approach (TMA4 NICE 2500ft - FL115): 120.850

LFMN Ground/Tower (Archives)
Nice, France

Feed Status: UP
Listen in your browser - HTML5 player(in browser, HTML5)
Click here to listen with your own player(launches your MP3 player)

LFMN 200100Z 33006KT 9999 FEW073 SCT150 BKN230 13/11 Q1005 NOSIG

LFMN Flight Activity (Flightaware)

Listeners: 0 out of 1009 total

Nice Ground: 121.700
Nice Tower: 118.700

LFPO Approach (Archives)
Paris, France

Feed Status: UP
Listen in your browser - HTML5 player(in browser, HTML5)
Click here to listen with your own player(launches your MP3 player)

LFPO 200100Z 33006KT CAVOK 12/09 Q1009 NOSIG

LFPO Flight Activity (Flightaware)

Listeners: 1 out of 1009 total

Orly Approach: 124.450
Orly Approach: 118.850
Orly Approach: 120.850
Orly Approach: 123.875

LFPO Departure (Archives)
Paris, France

Feed Status: UP
Listen in your browser - HTML5 player(in browser, HTML5)
Click here to listen with your own player(launches your MP3 player)

LFPO 200100Z 33006KT CAVOK 12/09 Q1009 NOSIG

LFPO Flight Activity (Flightaware)

Listeners: 1 out of 1009 total

Orly Departure: 127.750

LFPO Tower (Archives)
Paris, France

Feed Status: UP
Listen in your browser - HTML5 player(in browser, HTML5)
Click here to listen with your own player(launches your MP3 player)

LFPO 200100Z 33006KT CAVOK 12/09 Q1009 NOSIG

LFPO Flight Activity (Flightaware)

Listeners: 1 out of 1009 total

Orly Tower: 120.500
Orly Tower: 118.700

LFSB Tower (Archives)
Basel, Switzerland

Feed Status: UP
Listen in your browser - HTML5 player(in browser, HTML5)
Click here to listen with your own player(launches your MP3 player)

LFSB 200100Z AUTO 26004KT 6000 RA FEW007/// BKN023/// BKN029/// ///CB 12/12 Q1005 TEMPO 4000 RA BKN010

LFSB Flight Activity (Flightaware)

Listeners: 0 out of 1009 total

Mulhouse Tower: 118.300

LFST Approach #1 (Archives)
Strasbourg, France

Feed Status: UP
Listen in your browser - HTML5 player(in browser, HTML5)
Click here to listen with your own player(launches your MP3 player)

LFST 200100Z AUTO VRB03KT 9999 FEW031/// SCT056/// BKN082/// ///TCU 14/13 Q1004 TEMPO 4000 SHRA FEW050CB

LFST Flight Activity (Flightaware)

Listeners: 0 out of 1009 total

Strasbourg Approach: 120.700

LFST Approach #2 (Archives)
Strasbourg, France

Feed Status: UP
Listen in your browser - HTML5 player(in browser, HTML5)
Click here to listen with your own player(launches your MP3 player)

LFST 200100Z AUTO VRB03KT 9999 FEW031/// SCT056/// BKN082/// ///TCU 14/13 Q1004 TEMPO 4000 SHRA FEW050CB

LFST Flight Activity (Flightaware)

Listeners: 0 out of 1009 total

Strasbourg Approach: 119.575

LFST Emergency/Guard (Archives)
Strasbourg, France

Feed Status: UP
Listen in your browser - HTML5 player(in browser, HTML5)
Click here to listen with your own player(launches your MP3 player)

LFST 200100Z AUTO VRB03KT 9999 FEW031/// SCT056/// BKN082/// ///TCU 14/13 Q1004 TEMPO 4000 SHRA FEW050CB

LFST Flight Activity (Flightaware)

Listeners: 0 out of 1009 total

Emergency/Guard: 121.500

LFST Ground (Archives)
Strasbourg, France

Feed Status: UP
Listen in your browser - HTML5 player(in browser, HTML5)
Click here to listen with your own player(launches your MP3 player)

LFST 200100Z AUTO VRB03KT 9999 FEW031/// SCT056/// BKN082/// ///TCU 14/13 Q1004 TEMPO 4000 SHRA FEW050CB

LFST Flight Activity (Flightaware)

Listeners: 0 out of 1009 total

Strasbourg Ground: 121.800

LFST Tower (Archives)
Strasbourg, France

Feed Status: UP
Listen in your browser - HTML5 player(in browser, HTML5)
Click here to listen with your own player(launches your MP3 player)

LFST 200100Z AUTO VRB03KT 9999 FEW031/// SCT056/// BKN082/// ///TCU 14/13 Q1004 TEMPO 4000 SHRA FEW050CB

LFST Flight Activity (Flightaware)

Listeners: 0 out of 1009 total

Strasbourg Tower: 119.250

LGAV App/Radar (Archives)
Athens, Greece

Feed Status: UP
Listen in your browser - HTML5 player(in browser, HTML5)
Click here to listen with your own player(launches your MP3 player)

LGAV 200120Z VRB02KT 9999 FEW030 18/14 Q1010 NOSIG

LGAV Flight Activity (Flightaware)

Listeners: 0 out of 1009 total

Athens Approach: 132.975
Athens Information: 130.925
Athens Information: 119.750
Athens Radar (Kerkira-Kefalinia-Paleohora Sectors FL460-FL345): 134.325
Athens Radar (Milos/Sitia Sectors FL460-FL345): 125.200
Athens Radar (Paleohora /Kerkira Sectors FL460-FL345): 133.725
Athens Radar (Paleohora Sector FL460-FL345): 124.625
Athens Radar (Rhodos/Kavos Sector FL460-FL345): 133.325
Emergency/Guard: 121.500
Makedonia Radar (Thessaloniki/Skopelos/Limnos/Kavala Sectors FL460-FL345): 133.575

LGIR Approach (Archives)
Iraklion, Greece

Feed Status: UP
Listen in your browser - HTML5 player(in browser, HTML5)
Click here to listen with your own player(launches your MP3 player)

LGIR 200120Z 15010KT 9999 SCT080 25/07 Q1009 NOSIG

LGIR Flight Activity (Flightaware)

Listeners: 0 out of 1009 total

Iraklion Radar: 123.975

LGIR Ground (Archives)
Iraklion, Greece

Feed Status: UP
Listen in your browser - HTML5 player(in browser, HTML5)
Click here to listen with your own player(launches your MP3 player)

LGIR 200120Z 15010KT 9999 SCT080 25/07 Q1009 NOSIG

LGIR Flight Activity (Flightaware)

Listeners: 0 out of 1009 total

Heraklion Ground: 121.700

LGIR Tower (Archives)
Iraklion, Greece

Feed Status: UP
Listen in your browser - HTML5 player(in browser, HTML5)
Click here to listen with your own player(launches your MP3 player)

LGIR 200120Z 15010KT 9999 SCT080 25/07 Q1009 NOSIG

LGIR Flight Activity (Flightaware)

Listeners: 0 out of 1009 total

Heraklion Tower: 120.850

LHBP Approach #1 (Archives)
Budapest, Hungary

Feed Status: UP
Listen in your browser - HTML5 player(in browser, HTML5)
Click here to listen with your own player(launches your MP3 player)

LHBP 200132Z 19008KT 4000 -RA BR SCT003 OVC069 14/14 Q1004 NOSIG

LHBP Flight Activity (Flightaware)

Listeners: 0 out of 1009 total

Budapest Approach: 129.700
Budapest Approach: 122.975
Budapest Approach (Upper): 123.860

LHBP Approach #2 (Archives)
Budapest, Hungary

Feed Status: UP
Listen in your browser - HTML5 player(in browser, HTML5)
Click here to listen with your own player(launches your MP3 player)

LHBP 200132Z 19008KT 4000 -RA BR SCT003 OVC069 14/14 Q1004 NOSIG

LHBP Flight Activity (Flightaware)

Listeners: 1 out of 1009 total

Budapest Approach: 122.975
Budapest Approach (Upper): 123.860

LHBP Approach (Director) (Archives)
Budapest, Hungary

Feed Status: UP
Listen in your browser - HTML5 player(in browser, HTML5)
Click here to listen with your own player(launches your MP3 player)

LHBP 200132Z 19008KT 4000 -RA BR SCT003 OVC069 14/14 Q1004 NOSIG

LHBP Flight Activity (Flightaware)

Listeners: 0 out of 1009 total

Budapest Director: 119.510

LHBP ATIS (Archives)
Budapest, Hungary

Feed Status: UP
Listen in your browser - HTML5 player(in browser, HTML5)
Click here to listen with your own player(launches your MP3 player)

LHBP 200132Z 19008KT 4000 -RA BR SCT003 OVC069 14/14 Q1004 NOSIG

LHBP Flight Activity (Flightaware)

Listeners: 0 out of 1009 total

Budapest ATIS: 132.380

LHBP Clearance Delivery (Archives)
Budapest, Hungary

Feed Status: UP
Listen in your browser - HTML5 player(in browser, HTML5)
Click here to listen with your own player(launches your MP3 player)

LHBP 200132Z 19008KT 4000 -RA BR SCT003 OVC069 14/14 Q1004 NOSIG

LHBP Flight Activity (Flightaware)

Listeners: 0 out of 1009 total

Budapest Clearance Delivery: 134.540

LHBP Ground (Archives)
Budapest, Hungary

Feed Status: UP
Listen in your browser - HTML5 player(in browser, HTML5)
Click here to listen with your own player(launches your MP3 player)

LHBP 200132Z 19008KT 4000 -RA BR SCT003 OVC069 14/14 Q1004 NOSIG

LHBP Flight Activity (Flightaware)

Listeners: 0 out of 1009 total

Budapest Ground: 121.910

LHBP Info (Archives)
Budapest, Hungary

Feed Status: UP
Listen in your browser - HTML5 player(in browser, HTML5)
Click here to listen with your own player(launches your MP3 player)

LHBP 200132Z 19008KT 4000 -RA BR SCT003 OVC069 14/14 Q1004 NOSIG

LHBP Flight Activity (Flightaware)

Listeners: 1 out of 1009 total

Budapest Info: 119.350

LHBP Tower (Archives)
Budapest, Hungary

Feed Status: UP
Listen in your browser - HTML5 player(in browser, HTML5)
Click here to listen with your own player(launches your MP3 player)

LHBP 200132Z 19008KT 4000 -RA BR SCT003 OVC069 14/14 Q1004 NOSIG

LHBP Flight Activity (Flightaware)

Listeners: 0 out of 1009 total

Budapest Tower: 118.100

LHBP Twr/Info (Archives)
Budapest, Hungary

Feed Status: UP
Listen in your browser - HTML5 player(in browser, HTML5)
Click here to listen with your own player(launches your MP3 player)

LHBP 200132Z 19008KT 4000 -RA BR SCT003 OVC069 14/14 Q1004 NOSIG

LHBP Flight Activity (Flightaware)

Listeners: 0 out of 1009 total

Budapest Info: 119.350
Budapest Tower: 118.100

LHCC Control (East/West)
Budapest, Hungary

Feed Status: DOWN
Offline since: 2019-05-13 15:03:02 UTC

LHBP 200132Z 19008KT 4000 -RA BR SCT003 OVC069 14/14 Q1004 NOSIG

Budapest Control (East Low Sector): 120.375
Budapest Control (West Low Sector): 133.200

LHDC Info/Tower (Archives)
Debrecen, Hungary

Feed Status: UP
Listen in your browser - HTML5 player(in browser, HTML5)
Click here to listen with your own player(launches your MP3 player)

LHDC 200115Z AUTO 09005KT 9000 -SHRA NSC 14/14 Q1004

LHDC Flight Activity (Flightaware)

Listeners: 0 out of 1009 total

Debrecen Info/Tower: 125.900

LHEM CTAF
Esztergom, Hungary

Feed Status: DOWN
Offline since: 2019-05-19 11:37:03 UTC

Esztergom CTAF: 126.850

LHPR Info/AFIS (Archives)
Gyor, Hungary

Feed Status: UP
Listen in your browser - HTML5 player(in browser, HTML5)
Click here to listen with your own player(launches your MP3 player)

LHPR 200045Z AUTO 11008KT 9999 -RA OVC067TCU 14/13 Q1004

LHPR Flight Activity (Flightaware)

Listeners: 0 out of 1009 total

Gyor AFIS: 129.910

LHUD CTAF/Info/AFIS (Archives)
Szeged, Hungary

Feed Status: UP
Listen in your browser - HTML5 player(in browser, HTML5)
Click here to listen with your own player(launches your MP3 player)

LHUD 192345Z 16006KT CAVOK 14/13 Q1005 RERA

LHUD Flight Activity (Flightaware)

Listeners: 0 out of 1009 total

Szeged CTAF/Info/AFIS: 122.810

LJLJ Radar (Archives)
Ljubljana, Slovenia

Feed Status: UP
Listen in your browser - HTML5 player(in browser, HTML5)
Click here to listen with your own player(launches your MP3 player)

LJLJ 200100Z VRB01KT 9999 0600SE R30/0700N PRFG FEW010 SCT065 09/09 Q1003 NOSIG

LJLJ Flight Activity (Flightaware)

Listeners: 1 out of 1009 total

Ljubljana Approach: 135.275

LJLJ Tower (Archives)
Ljubljana, Slovenia

Feed Status: UP
Listen in your browser - HTML5 player(in browser, HTML5)
Click here to listen with your own player(launches your MP3 player)

LJLJ 200100Z VRB01KT 9999 0600SE R30/0700N PRFG FEW010 SCT065 09/09 Q1003 NOSIG

LJLJ Flight Activity (Flightaware)

Listeners: 1 out of 1009 total

Ljubljana Tower: 118.000

LJMB Info/FSS/FIC (Archives)
Maribor, Slovenia

Feed Status: UP
Listen in your browser - HTML5 player(in browser, HTML5)
Click here to listen with your own player(launches your MP3 player)

LJMB 200100Z AUTO 16003KT 9999 NSC 12/10 Q1003

LJMB Flight Activity (Flightaware)

Listeners: 0 out of 1009 total

Ljubljana Information FSS/FIC (Maribor Area): 118.475

LJMB Tower/Approach (Archives)
Maribor, Slovenia

Feed Status: UP
Listen in your browser - HTML5 player(in browser, HTML5)
Click here to listen with your own player(launches your MP3 player)

LJMB 200100Z AUTO 16003KT 9999 NSC 12/10 Q1003

LJMB Flight Activity (Flightaware)

Listeners: 0 out of 1009 total

Maribor Tower/Approach: 119.200

LJPZ Tower
Secovlje, Slovenia

Feed Status: DOWN
Offline since: 2019-05-19 21:32:02 UTC

LJPZ 200100Z AUTO 14004KT 9999 FEW030/// BKN048/// BKN100/// 13/12 Q1004

Portoroz Tower: 124.875

LKPM Tower (Archives)
Pribram, Czech Republic

Feed Status: UP
Listen in your browser - HTML5 player(in browser, HTML5)
Click here to listen with your own player(launches your MP3 player)

METAR NOT AVAILABLE

LKPM Flight Activity (Flightaware)

Listeners: 0 out of 1009 total

Pribram Tower: 118.750

LKAA FIR (High) (Archives)
Prague, Czech Republic

Feed Status: UP
Listen in your browser - HTML5 player(in browser, HTML5)
Click here to listen with your own player(launches your MP3 player)

LKAA Flight Activity (Flightaware)

Listeners: 0 out of 1009 total

LKAA FIR Sector West High / Praha Radar : 132.065

LKAA FIR (Low) (Archives)
Prague, Czech Republic

Feed Status: UP
Listen in your browser - HTML5 player(in browser, HTML5)
Click here to listen with your own player(launches your MP3 player)

LKAA Flight Activity (Flightaware)

Listeners: 0 out of 1009 total

LKAA FIR Sector West Low / Praha Radar: 120.275

LKPR Approach (Archives)
Prague, Czech Republic

Feed Status: UP
Listen in your browser - HTML5 player(in browser, HTML5)
Click here to listen with your own player(launches your MP3 player)

LKPR 200130Z 07005KT CAVOK 12/09 Q1003 NOSIG

LKPR Flight Activity (Flightaware)

Listeners: 1 out of 1009 total

Prague Approach/Radar: 127.580

LKPR Clearance Del (Archives)
Prague, Czech Republic

Feed Status: UP
Listen in your browser - HTML5 player(in browser, HTML5)
Click here to listen with your own player(launches your MP3 player)

LKPR 200130Z 07005KT CAVOK 12/09 Q1003 NOSIG

LKPR Flight Activity (Flightaware)

Listeners: 0 out of 1009 total


LKPR Director/Ruzyne Radar (Archives)
Prague, Czech Republic

Feed Status: UP
Listen in your browser - HTML5 player(in browser, HTML5)
Click here to listen with your own player(launches your MP3 player)

LKPR 200130Z 07005KT CAVOK 12/09 Q1003 NOSIG

LKPR Flight Activity (Flightaware)

Listeners: 0 out of 1009 total

Prague Director/Ruzyne Radar: 119.010

NOTE: Only active during peak times, typically 2-6PM local time (CET)

LKPR Ground (Archives)
Prague, Czech Republic

Feed Status: UP
Listen in your browser - HTML5 player(in browser, HTML5)
Click here to listen with your own player(launches your MP3 player)

LKPR 200130Z 07005KT CAVOK 12/09 Q1003 NOSIG

LKPR Flight Activity (Flightaware)

Listeners: 1 out of 1009 total

Prague/Ruzyne Clearance Delivery: 120.060
Prague/Ruzyne Ground: 121.910

LKPR Tower (Archives)
Prague, Czech Republic

Feed Status: UP
Listen in your browser - HTML5 player(in browser, HTML5)
Click here to listen with your own player(launches your MP3 player)

LKPR 200130Z 07005KT CAVOK 12/09 Q1003 NOSIG

LKPR Flight Activity (Flightaware)

Listeners: 2 out of 1009 total

Prague/Ruzyne Tower: 134.560

LKTB Gnd/Twr/Radar (Archives)
Brno, Czech Republic

Feed Status: UP
Listen in your browser - HTML5 player(in browser, HTML5)
Click here to listen with your own player(launches your MP3 player)

LKTB 200130Z 06002KT 9999 FEW035 15/13 Q1002 NOSIG

LKTB Flight Activity (Flightaware)

Listeners: 0 out of 1009 total

Brno Ground: 125.425
Brno Handling: 131.800
Brno Radar (Approach): 127.350
Brno Tower: 119.600

LMML Del/Gnd/Twr/App (Archives)
Luqa, Malta

Feed Status: UP
Listen in your browser - HTML5 player(in browser, HTML5)
Click here to listen with your own player(launches your MP3 player)

LMML 200115Z 33007KT CAVOK 16/12 Q1011 NOSIG

LMML Flight Activity (Flightaware)

Listeners: 0 out of 1009 total

Luqa Approach: 128.150
Luqa Approach/Radar: 118.350
Luqa Ground: 121.600
Luqa Tower: 135.100
Malta Control East: 123.625
Malta Control West: 130.975

Santa Maria Control (Oceanic) (Archives)
Santa Maria Island (Azores), Portugal

Feed Status: UP
Listen in your browser - HTML5 player(in browser, HTML5)
Click here to listen with your own player(launches your MP3 player)

LPAZ 200100Z 27008KT 9999 FEW017 17/13 Q1022

LPAZ Flight Activity (Flightaware)

Listeners: 0 out of 1009 total

Emergency/Guard: 121.500
LPHR (Horta) Approach: 120.600
LPLA (Terceira) Approach: 135.000
LPLA (Terceira) Tower: 122.100
LPPD (Ponta Delgada) Approach: 119.400
Ponta Delgada Ground: 131.600
Santa Maria Approach: 119.100
Santa Maria Control: 132.150

LPLA Gnd/Twr/App (Archives)
Lajes, Portugal

Feed Status: UP
Listen in your browser - HTML5 player(in browser, HTML5)
Click here to listen with your own player(launches your MP3 player)

LPLA 200100Z /////KT 9999 FEW020 17/14 Q1020

LPLA Flight Activity (Flightaware)

Listeners: 1 out of 1009 total

Lajes Approach: 135.000
Lajes Ground: 121.900
Lajes Tower: 122.100

LPPR Approach #1
Porto, Portugal

Feed Status: DOWN
Offline since: 2019-05-20 01:11:02 UTC

LPPR 200100Z VRB02KT CAVOK 09/08 Q1015

Porto Approach: 121.105

LPPR Tower (Archives)
Porto, Portugal

Feed Status: UP
Listen in your browser - HTML5 player(in browser, HTML5)
Click here to listen with your own player(launches your MP3 player)

LPPR 200100Z VRB02KT CAVOK 09/08 Q1015

LPPR Flight Activity (Flightaware)

Listeners: 0 out of 1009 total

Porto Tower: 118.005

LPPT Approach (Archives)
Lisbon, Portugal

Feed Status: UP
Listen in your browser - HTML5 player(in browser, HTML5)
Click here to listen with your own player(launches your MP3 player)

LPPT 200100Z 01006KT 320V030 CAVOK 12/09 Q1015

LPPT Flight Activity (Flightaware)

Listeners: 1 out of 1009 total

Lisbon Approach: 119.100

LRCL Twr/App #1 (Archives)
Cluj-Napoca, Romania

Feed Status: UP
Listen in your browser - HTML5 player(in browser, HTML5)
Click here to listen with your own player(launches your MP3 player)

LRCL 200100Z 32004KT CAVOK 18/12 Q1006

LRCL Flight Activity (Flightaware)

Listeners: 0 out of 1009 total

Cluj Approach: 126.425
Cluj Tower: 134.400

LRCL Twr/App #2 (Archives)
Cluj-Napoca, Romania

Feed Status: UP
Listen in your browser - HTML5 player(in browser, HTML5)
Click here to listen with your own player(launches your MP3 player)

LRCL 200100Z 32004KT CAVOK 18/12 Q1006

LRCL Flight Activity (Flightaware)

Listeners: 0 out of 1009 total

Cluj Approach: 126.425
Cluj Tower: 134.400

LRCL Twr/App/ACC
Cluj-Napoca, Romania

Feed Status: DOWN
Offline since: 2019-05-19 22:13:03 UTC

LRCL 200100Z 32004KT CAVOK 18/12 Q1006

Cluj Approach: 126.425
Cluj Tower: 134.400
Napoc ACC: 127.075

LROP Ground (Archives)
Bucharest, Romania

Feed Status: UP
Listen in your browser - HTML5 player(in browser, HTML5)
Click here to listen with your own player(launches your MP3 player)

LROP 200100Z 04005KT CAVOK 17/16 Q1006 NOSIG

LROP Flight Activity (Flightaware)

Listeners: 0 out of 1009 total

Bucharest Ground: 121.855

LROP Radar (Archives)
Bucharest, Romania

Feed Status: UP
Listen in your browser - HTML5 player(in browser, HTML5)
Click here to listen with your own player(launches your MP3 player)

LROP 200100Z 04005KT CAVOK 17/16 Q1006 NOSIG

LROP Flight Activity (Flightaware)

Listeners: 0 out of 1009 total

Bucharest Radar (Arges Mid sector): 121.175
Bucharest Radar (Arges Top Sector): 123.265
Bucharest Radar (Lomos Top Sector): 132.865

LROP Tower/Approach (Archives)
Bucharest, Romania

Feed Status: UP
Listen in your browser - HTML5 player(in browser, HTML5)
Click here to listen with your own player(launches your MP3 player)

LROP 200100Z 04005KT CAVOK 17/16 Q1006 NOSIG

LROP Flight Activity (Flightaware)

Listeners: 0 out of 1009 total

Bucharest Approach: 119.415
Bucharest Director: 127.155
Bucharest Tower: 118.805

LROP Twr/App/Radar (Archives)
Bucharest, Romania

Feed Status: UP
Listen in your browser - HTML5 player(in browser, HTML5)
Click here to listen with your own player(launches your MP3 player)

LROP 200100Z 04005KT CAVOK 17/16 Q1006 NOSIG

LROP Flight Activity (Flightaware)

Listeners: 0 out of 1009 total

Bucharest Approach: 119.415
Bucharest Director: 127.155
Bucharest Radar (Arges Mid sector): 121.175
Bucharest Radar (Arges Top Sector): 123.265
Bucharest Radar (Lomos Top Sector): 132.865
Bucharest Tower: 118.805

Note: Bucharest Radar on right stereo channel and Bucharest Tower/Approach on left stereo channel.

LRSB Tower/CTAF (Archives)
Sibiu, Romania

Feed Status: UP
Listen in your browser - HTML5 player(in browser, HTML5)
Click here to listen with your own player(launches your MP3 player)

LRSB 200030Z 16010G20KT 9999 FEW074 21/11 Q1006

LRSB Flight Activity (Flightaware)

Listeners: 0 out of 1009 total

Sibiu Tower: 121.305

LRTR Tower (Archives)
Timisoara, Romania

Feed Status: UP
Listen in your browser - HTML5 player(in browser, HTML5)
Click here to listen with your own player(launches your MP3 player)

LRTR 200100Z 12010KT 9999 SCT004 14/14 Q1006 R11/29//95 NOSIG

LRTR Flight Activity (Flightaware)

Listeners: 0 out of 1009 total

ARAD Approach: 127.250
Timisoara Tower: 120.100

LSGG App/Radar (Archives)
Geneva, Switzerland

Feed Status: UP
Listen in your browser - HTML5 player(in browser, HTML5)
Click here to listen with your own player(launches your MP3 player)

LSGG 200120Z AUTO VRB01KT 9999 FEW034 SCT038 BKN063 12/11 Q1006 RERA NOSIG

LSGG Flight Activity (Flightaware)

Listeners: 1 out of 1009 total

Geneva Arrival: 136.250
Swiss Radar (L2 - FL290-FL310): 126.050

LSGG Approach (Archives)
Geneva, Switzerland

Feed Status: UP
Listen in your browser - HTML5 player(in browser, HTML5)
Click here to listen with your own player(launches your MP3 player)

LSGG 200120Z AUTO VRB01KT 9999 FEW034 SCT038 BKN063 12/11 Q1006 RERA NOSIG

LSGG Flight Activity (Flightaware)

Listeners: 0 out of 1009 total

Geneva Arrival: 136.250

LSGG Radar (Archives)
Geneva, Switzerland

Feed Status: UP
Listen in your browser - HTML5 player(in browser, HTML5)
Click here to listen with your own player(launches your MP3 player)

LSGG 200120Z AUTO VRB01KT 9999 FEW034 SCT038 BKN063 12/11 Q1006 RERA NOSIG

LSGG Flight Activity (Flightaware)

Listeners: 0 out of 1009 total

Swiss Radar (L2 - FL290-FL310): 126.050

LSGG Tower
Geneva, Switzerland

Feed Status: DOWN
Offline since: 2019-05-13 21:11:03 UTC

LSGG 200120Z AUTO VRB01KT 9999 FEW034 SCT038 BKN063 12/11 Q1006 RERA NOSIG

Geneva Tower: 118.700

LSGS Gnd/Twr/App (Archives)
Sion, Switzerland

Feed Status: UP
Listen in your browser - HTML5 player(in browser, HTML5)
Click here to listen with your own player(launches your MP3 player)

LSGS 200120Z AUTO 29004KT 250V350 9999 -RA NCD 12/10 Q1005

LSGS Flight Activity (Flightaware)

Listeners: 0 out of 1009 total

Alpine Jet Service Handling: 131.675
Sion Airport Handling: 131.475
Sion Approach (IFR ARR MIL OFF): 126.825
Sion Ground: 121.700
Sion Tower: 118.275

LiveATC LSGS - About us

LSMD Tower (Archives)
Dubendorf, Switzerland

Feed Status: UP
Listen in your browser - HTML5 player(in browser, HTML5)
Click here to listen with your own player(launches your MP3 player)

LSZH 200120Z 31005KT 9999 FEW005 SCT011 BKN035 12/11 Q1005 NOSIG

LSZH Flight Activity (Flightaware)

Listeners: 0 out of 1009 total

Dubendorf Tower: 118.975

LSPM AFIS (Archives)
Ambri, Switzerland

Feed Status: UP
Listen in your browser - HTML5 player(in browser, HTML5)
Click here to listen with your own player(launches your MP3 player)

METAR NOT AVAILABLE

LSPM Flight Activity (Flightaware)

Listeners: 0 out of 1009 total

Ambri AFIS: 118.525

LSZA Tower (Archives)
Agno, Switzerland

Feed Status: UP
Listen in your browser - HTML5 player(in browser, HTML5)
Click here to listen with your own player(launches your MP3 player)

LSZA 200120Z AUTO VRB01KT 9999 SCT007 SCT044 BKN049 12/12 Q1004

LSZA Flight Activity (Flightaware)

Listeners: 0 out of 1009 total

Lugano Tower: 120.250

LSZB Tower/App/Dep (Archives)
Bern, Switzerland

Feed Status: UP
Listen in your browser - HTML5 player(in browser, HTML5)
Click here to listen with your own player(launches your MP3 player)

LSZB 200120Z AUTO 14008KT 8000 -RA SCT006 SCT013 BKN027 10/10 Q1006

LSZB Flight Activity (Flightaware)

Listeners: 0 out of 1009 total

LSZB Arrival/Departure (left channel): 127.325
LSZB Tower (right channel): 121.025

LSZG Tower (Archives)
Grenchen, Switzerland

Feed Status: UP
Listen in your browser - HTML5 player(in browser, HTML5)
Click here to listen with your own player(launches your MP3 player)

LSZG 200120Z AUTO 19004KT 9999 RA FEW024 SCT130 OVC150 12/12 Q1005

LSZG Flight Activity (Flightaware)

Listeners: 0 out of 1009 total

Grenchen Tower: 120.100

LSZH Approach (East) (Archives)
Zurich, Switzerland

Feed Status: UP
Listen in your browser - HTML5 player(in browser, HTML5)
Click here to listen with your own player(launches your MP3 player)

LSZH 200120Z 31005KT 9999 FEW005 SCT011 BKN035 12/11 Q1005 NOSIG

LSZH Flight Activity (Flightaware)

Listeners: 0 out of 1009 total

Zurich Approach (East): 135.225

LSZH Approach (West) (Archives)
Zurich, Switzerland

Feed Status: UP
Listen in your browser - HTML5 player(in browser, HTML5)
Click here to listen with your own player(launches your MP3 player)

LSZH 200120Z 31005KT 9999 FEW005 SCT011 BKN035 12/11 Q1005 NOSIG

LSZH Flight Activity (Flightaware)

Listeners: 0 out of 1009 total

Zurich Approach (West): 118.000

LSZH Apron (South) (Archives)
Zurich, Switzerland

Feed Status: UP
Listen in your browser - HTML5 player(in browser, HTML5)
Click here to listen with your own player(launches your MP3 player)

LSZH 200120Z 31005KT 9999 FEW005 SCT011 BKN035 12/11 Q1005 NOSIG

LSZH Flight Activity (Flightaware)

Listeners: 0 out of 1009 total

Zurich Apron (South): 121.755

LSZH Apron (West) (Archives)
Zurich, Switzerland

Feed Status: UP
Listen in your browser - HTML5 player(in browser, HTML5)
Click here to listen with your own player(launches your MP3 player)

LSZH 200120Z 31005KT 9999 FEW005 SCT011 BKN035 12/11 Q1005 NOSIG

LSZH Flight Activity (Flightaware)

Listeners: 0 out of 1009 total

Zurich Apron (West): 121.855

LSZH Clearance Delivery (Archives)
Zurich, Switzerland

Feed Status: UP
Listen in your browser - HTML5 player(in browser, HTML5)
Click here to listen with your own player(launches your MP3 player)

LSZH 200120Z 31005KT 9999 FEW005 SCT011 BKN035 12/11 Q1005 NOSIG

LSZH Flight Activity (Flightaware)

Listeners: 0 out of 1009 total

Zurich Clearance Delivery: 121.925

LSZH Ground (Archives)
Zurich, Switzerland

Feed Status: UP
Listen in your browser - HTML5 player(in browser, HTML5)
Click here to listen with your own player(launches your MP3 player)

LSZH 200120Z 31005KT 9999 FEW005 SCT011 BKN035 12/11 Q1005 NOSIG

LSZH Flight Activity (Flightaware)

Listeners: 0 out of 1009 total

Zurich Ground: 121.905

LSZH Radar (Archives)
Zurich, Switzerland

Feed Status: UP
Listen in your browser - HTML5 player(in browser, HTML5)
Click here to listen with your own player(launches your MP3 player)

LSZH 200120Z 31005KT 9999 FEW005 SCT011 BKN035 12/11 Q1005 NOSIG

LSZH Flight Activity (Flightaware)

Listeners: 1 out of 1009 total

Zurich Radar ACC (-FL240 East): 133.900
Zurich Radar ACC (-FL240 North): 136.150
Zurich Radar ACC (-FL240 South): 128.050
Zurich Radar ACC (-FL240 West): 135.675
Zurich Radar ACC (FL250-280): 133.050
Zurich Radar ACC (FL290-320): 132.815
Zurich Radar ACC (FL330-350): 134.600
Zurich Radar ACC (FL360+): 133.400

LSZH Radar 132.815 (Archives)
Zurich, Switzerland

Feed Status: UP
Listen in your browser - HTML5 player(in browser, HTML5)
Click here to listen with your own player(launches your MP3 player)

LSZH 200120Z 31005KT 9999 FEW005 SCT011 BKN035 12/11 Q1005 NOSIG

LSZH Flight Activity (Flightaware)

Listeners: 1 out of 1009 total

Zurich Radar: 132.815

LSZH Radar 133.050 (Archives)
Zurich, Switzerland

Feed Status: UP
Listen in your browser - HTML5 player(in browser, HTML5)
Click here to listen with your own player(launches your MP3 player)

LSZH 200120Z 31005KT 9999 FEW005 SCT011 BKN035 12/11 Q1005 NOSIG

LSZH Flight Activity (Flightaware)

Listeners: 0 out of 1009 total

Zurich Radar: 133.050

LSZH Radar 133.405 (Archives)
Zurich, Switzerland

Feed Status: UP
Listen in your browser - HTML5 player(in browser, HTML5)
Click here to listen with your own player(launches your MP3 player)

LSZH 200120Z 31005KT 9999 FEW005 SCT011 BKN035 12/11 Q1005 NOSIG

LSZH Flight Activity (Flightaware)

Listeners: 0 out of 1009 total

Zurich Radar: 133.405

LSZH Radar 133.690 (Archives)
Zurich, Switzerland

Feed Status: UP
Listen in your browser - HTML5 player(in browser, HTML5)
Click here to listen with your own player(launches your MP3 player)

LSZH 200120Z 31005KT 9999 FEW005 SCT011 BKN035 12/11 Q1005 NOSIG

LSZH Flight Activity (Flightaware)

Listeners: 0 out of 1009 total

Zurich Radar: 133.690

LSZH Radar 133.905 (Archives)
Zurich, Switzerland

Feed Status: UP
Listen in your browser - HTML5 player(in browser, HTML5)
Click here to listen with your own player(launches your MP3 player)

LSZH 200120Z 31005KT 9999 FEW005 SCT011 BKN035 12/11 Q1005 NOSIG

LSZH Flight Activity (Flightaware)

Listeners: 0 out of 1009 total

Zurich Radar (Below FL240 East): 133.905

LSZH Radar 134.605 (Archives)
Zurich, Switzerland

Feed Status: UP
Listen in your browser - HTML5 player(in browser, HTML5)
Click here to listen with your own player(launches your MP3 player)

LSZH 200120Z 31005KT 9999 FEW005 SCT011 BKN035 12/11 Q1005 NOSIG

LSZH Flight Activity (Flightaware)

Listeners: 0 out of 1009 total

Zurich Radar (FL330-350): 134.605

LSZH Radar 135.680 (Archives)
Zurich, Switzerland

Feed Status: UP
Listen in your browser - HTML5 player(in browser, HTML5)
Click here to listen with your own player(launches your MP3 player)

LSZH 200120Z 31005KT 9999 FEW005 SCT011 BKN035 12/11 Q1005 NOSIG

LSZH Flight Activity (Flightaware)

Listeners: 0 out of 1009 total


LSZH Radar 136.155 (Archives)
Zurich, Switzerland

Feed Status: UP
Listen in your browser - HTML5 player(in browser, HTML5)
Click here to listen with your own player(launches your MP3 player)

LSZH 200120Z 31005KT 9999 FEW005 SCT011 BKN035 12/11 Q1005 NOSIG

LSZH Flight Activity (Flightaware)

Listeners: 0 out of 1009 total

Zurich Radar (Below FL240 North): 136.155

LSZH Tower (Archives)
Zurich, Switzerland

Feed Status: UP
Listen in your browser - HTML5 player(in browser, HTML5)
Click here to listen with your own player(launches your MP3 player)

LSZH 200120Z 31005KT 9999 FEW005 SCT011 BKN035 12/11 Q1005 NOSIG

LSZH Flight Activity (Flightaware)

Listeners: 0 out of 1009 total

Zurich Tower: 118.100

LSZH Tower #3 (Archives)
Zurich, Switzerland

Feed Status: UP
Listen in your browser - HTML5 player(in browser, HTML5)
Click here to listen with your own player(launches your MP3 player)

LSZH 200120Z 31005KT 9999 FEW005 SCT011 BKN035 12/11 Q1005 NOSIG

LSZH Flight Activity (Flightaware)

Listeners: 2 out of 1009 total

Zurich Tower: 118.100

LSZH Tower (14/32) (Archives)
Zurich, Switzerland

Feed Status: UP
Listen in your browser - HTML5 player(in browser, HTML5)
Click here to listen with your own player(launches your MP3 player)

LSZH 200120Z 31005KT 9999 FEW005 SCT011 BKN035 12/11 Q1005 NOSIG

LSZH Flight Activity (Flightaware)

Listeners: 0 out of 1009 total

Zurich Tower (Rwy 14 App/32 Takeoff): 120.225

LSZH Twr/Gnd (backup) (Archives)
Zurich, Switzerland

Feed Status: UP
Listen in your browser - HTML5 player(in browser, HTML5)
Click here to listen with your own player(launches your MP3 player)

LSZH 200120Z 31005KT 9999 FEW005 SCT011 BKN035 12/11 Q1005 NOSIG

LSZH Flight Activity (Flightaware)

Listeners: 0 out of 1009 total

Zurich Twr/Gnd (backup): 119.700

LSZL Tower (Archives)
Locarno, Switzerland

Feed Status: UP
Listen in your browser - HTML5 player(in browser, HTML5)
Click here to listen with your own player(launches your MP3 player)

LSZL Flight Activity (Flightaware)

Listeners: 0 out of 1009 total


LSZR Tower
Altenrhein, Switzerland

Feed Status: DOWN
Offline since: 2019-05-19 15:17:02 UTC

LSZR 200120Z AUTO 28005KT 9999 -RA SCT013 BKN018 12/12 Q1004

Altenrhein Tower: 135.425

LSZW CTAF (Archives)
Thun, Switzerland

Feed Status: UP
Listen in your browser - HTML5 player(in browser, HTML5)
Click here to listen with your own player(launches your MP3 player)

LSZW Flight Activity (Flightaware)

Listeners: 0 out of 1009 total

Thun CTAF/Info: 123.250

LTFJ Del/Gnd/Twr #1 (Archives)
Istanbul, Turkey

Feed Status: UP
Listen in your browser - HTML5 player(in browser, HTML5)
Click here to listen with your own player(launches your MP3 player)

LTFJ 200120Z 05003KT 010V140 CAVOK 20/12 Q1009 NOSIG

LTFJ Flight Activity (Flightaware)

Listeners: 0 out of 1009 total

Gokcen Clearance Delivery: 122.625
Gokcen Ground: 121.750
Gokcen Tower: 118.800

LTFJ Del/Gnd/Twr #2 (Archives)
Istanbul, Turkey

Feed Status: UP
Listen in your browser - HTML5 player(in browser, HTML5)
Click here to listen with your own player(launches your MP3 player)

LTFJ 200120Z 05003KT 010V140 CAVOK 20/12 Q1009 NOSIG

LTFJ Flight Activity (Flightaware)

Listeners: 0 out of 1009 total

Gokcen Clearance Delivery: 122.625
Gokcen Ground: 121.750
Gokcen Tower: 118.800

LUKK ACC #1 (Archives)
Chisinau, Moldova

Feed Status: UP
Listen in your browser - HTML5 player(in browser, HTML5)
Click here to listen with your own player(launches your MP3 player)

LUKK 200130Z 09004KT CAVOK 17/16 Q1011 R08/CLRD// NOSIG

LUKK Flight Activity (Flightaware)

Listeners: 0 out of 1009 total

Chisinau ACC: 130.975

Runway 08 Blog

LUKK ACC #2 (Archives)
Chisinau, Moldova

Feed Status: UP
Listen in your browser - HTML5 player(in browser, HTML5)
Click here to listen with your own player(launches your MP3 player)

LUKK 200130Z 09004KT CAVOK 17/16 Q1011 R08/CLRD// NOSIG

LUKK Flight Activity (Flightaware)

Listeners: 0 out of 1009 total

Chisinau ACC: 128.975

Runway 08 Blog

LUKK Air to Air (Archives)
Chisinau, Moldova

Feed Status: UP
Listen in your browser - HTML5 player(in browser, HTML5)
Click here to listen with your own player(launches your MP3 player)

LUKK 200130Z 09004KT CAVOK 17/16 Q1011 R08/CLRD// NOSIG

LUKK Flight Activity (Flightaware)

Listeners: 0 out of 1009 total

Chisinau Air to Air: 123.450

Runway 08 Blog

LUKK Alternate (Archives)
Chisinau, Moldova

Feed Status: UP
Listen in your browser - HTML5 player(in browser, HTML5)
Click here to listen with your own player(launches your MP3 player)

LUKK 200130Z 09004KT CAVOK 17/16 Q1011 R08/CLRD// NOSIG

LUKK Flight Activity (Flightaware)

Listeners: 0 out of 1009 total

Chisinau Alternate: 129.725

LUKK Approach #1 (Archives)
Chisinau, Moldova

Feed Status: UP
Listen in your browser - HTML5 player(in browser, HTML5)
Click here to listen with your own player(launches your MP3 player)

LUKK 200130Z 09004KT CAVOK 17/16 Q1011 R08/CLRD// NOSIG

LUKK Flight Activity (Flightaware)

Listeners: 0 out of 1009 total

Chisinau Approach: 133.300

LUKK Approach #2 (Archives)
Chisinau, Moldova

Feed Status: UP
Listen in your browser - HTML5 player(in browser, HTML5)
Click here to listen with your own player(launches your MP3 player)

LUKK 200130Z 09004KT CAVOK 17/16 Q1011 R08/CLRD// NOSIG

LUKK Flight Activity (Flightaware)

Listeners: 0 out of 1009 total

Chisinau Approach: 133.300

Runway 08 Blog

LUKK Control (Archives)
Chisinau, Moldova

Feed Status: UP
Listen in your browser - HTML5 player(in browser, HTML5)
Click here to listen with your own player(launches your MP3 player)

LUKK 200130Z 09004KT CAVOK 17/16 Q1011 R08/CLRD// NOSIG

LUKK Flight Activity (Flightaware)

Listeners: 0 out of 1009 total

Chisinau ACC: 128.975
Chisinau ACC: 130.975

LUKK Emergency/Guard (Archives)
Chisinau, Moldova

Feed Status: UP
Listen in your browser - HTML5 player(in browser, HTML5)
Click here to listen with your own player(launches your MP3 player)

LUKK 200130Z 09004KT CAVOK 17/16 Q1011 R08/CLRD// NOSIG

LUKK Flight Activity (Flightaware)

Listeners: 0 out of 1009 total

Emergency/Guard: 121.500

Runway 08 Blog

LUKK Ground #1 (Archives)
Chisinau, Moldova

Feed Status: UP
Listen in your browser - HTML5 player(in browser, HTML5)
Click here to listen with your own player(launches your MP3 player)

LUKK 200130Z 09004KT CAVOK 17/16 Q1011 R08/CLRD// NOSIG

LUKK Flight Activity (Flightaware)

Listeners: 0 out of 1009 total

Chisinau Ground: 121.800

LUKK Ground #2 (Archives)
Chisinau, Moldova

Feed Status: UP
Listen in your browser - HTML5 player(in browser, HTML5)
Click here to listen with your own player(launches your MP3 player)

LUKK 200130Z 09004KT CAVOK 17/16 Q1011 R08/CLRD// NOSIG

LUKK Flight Activity (Flightaware)

Listeners: 0 out of 1009 total

Chisinau Ground: 121.800

Runway 08 Blog

LUKK Handling (Archives)
Chisinau, Moldova

Feed Status: UP
Listen in your browser - HTML5 player(in browser, HTML5)
Click here to listen with your own player(launches your MP3 player)

LUKK 200130Z 09004KT CAVOK 17/16 Q1011 R08/CLRD// NOSIG

LUKK Flight Activity (Flightaware)

Listeners: 0 out of 1009 total

Chisinau Handling: 131.700

Runway 08 Blog

LUKK Tower #1 (Archives)
Chisinau, Moldova

Feed Status: UP
Listen in your browser - HTML5 player(in browser, HTML5)
Click here to listen with your own player(launches your MP3 player)

LUKK 200130Z 09004KT CAVOK 17/16 Q1011 R08/CLRD// NOSIG

LUKK Flight Activity (Flightaware)

Listeners: 0 out of 1009 total

Chisinau Tower: 118.100

LUKK Tower #2 (Archives)
Chisinau, Moldova

Feed Status: UP
Listen in your browser - HTML5 player(in browser, HTML5)
Click here to listen with your own player(launches your MP3 player)

LUKK 200130Z 09004KT CAVOK 17/16 Q1011 R08/CLRD// NOSIG

LUKK Flight Activity (Flightaware)

Listeners: 0 out of 1009 total

Chisinau Tower: 118.100

Runway 08 Blog

LWSK ACC (Lower) (Archives)
Petrovec, Macedonia, Republic of

Feed Status: UP
Listen in your browser - HTML5 player(in browser, HTML5)
Click here to listen with your own player(launches your MP3 player)

LWSK 200130Z 04005KT CAVOK 15/12 Q1007 NOSIG

LWSK Flight Activity (Flightaware)

Listeners: 0 out of 1009 total

Skopje Control (Lower): 119.375

LWSK ACC (Upper) (Archives)
Petrovec, Macedonia, Republic of

Feed Status: UP
Listen in your browser - HTML5 player(in browser, HTML5)
Click here to listen with your own player(launches your MP3 player)

LWSK 200130Z 04005KT CAVOK 15/12 Q1007 NOSIG

LWSK Flight Activity (Flightaware)

Listeners: 0 out of 1009 total

Skopje Control (Upper): 120.015

LWSK Approach (Archives)
Petrovec, Macedonia, Republic of

Feed Status: UP
Listen in your browser - HTML5 player(in browser, HTML5)
Click here to listen with your own player(launches your MP3 player)

LWSK 200130Z 04005KT CAVOK 15/12 Q1007 NOSIG

LWSK Flight Activity (Flightaware)

Listeners: 0 out of 1009 total

Skopje Approach/Departure: 120.300

LWSK ATIS (Archives)
Petrovec, Macedonia, Republic of

Feed Status: UP
Listen in your browser - HTML5 player(in browser, HTML5)
Click here to listen with your own player(launches your MP3 player)

LWSK 200130Z 04005KT CAVOK 15/12 Q1007 NOSIG

LWSK Flight Activity (Flightaware)

Listeners: 0 out of 1009 total

Skopje ATIS: 130.125

LWSK Tower (Archives)
Petrovec, Macedonia, Republic of

Feed Status: UP
Listen in your browser - HTML5 player(in browser, HTML5)
Click here to listen with your own player(launches your MP3 player)

LWSK 200130Z 04005KT CAVOK 15/12 Q1007 NOSIG

LWSK Flight Activity (Flightaware)

Listeners: 1 out of 1009 total

Skopje Tower: 118.500

LZIB Del/Twr/App (Archives)
Bratislava, Slovakia

Feed Status: UP
Listen in your browser - HTML5 player(in browser, HTML5)
Click here to listen with your own player(launches your MP3 player)

LZIB 200130Z 08005KT 8000 -RA FEW044 OVC076 14/13 Q1003

LZIB Flight Activity (Flightaware)

Listeners: 0 out of 1009 total

Stefanik Approach: 120.900
Stefanik Clearance Delivery: 118.975
Stefanik Tower: 118.300
Stefanik Tower (backup): 118.700

(c) LPS

LZKZ Gnd/Twr/App (Archives)
Kosice, Slovakia

Feed Status: UP
Listen in your browser - HTML5 player(in browser, HTML5)
Click here to listen with your own player(launches your MP3 player)

LZKZ 200130Z 08004KT 030V120 CAVOK 16/13 Q1004

LZKZ Flight Activity (Flightaware)

Listeners: 0 out of 1009 total

Kosice Approach: 119.850
Kosice Ground: 121.700
Kosice Handling: 131.850
Kosice Tower: 120.400

LZPE CTAF/UNICOM (Archives)
Prievidza, Slovakia

Feed Status: UP
Listen in your browser - HTML5 player(in browser, HTML5)
Click here to listen with your own player(launches your MP3 player)

LZPE Flight Activity (Flightaware)

Listeners: 0 out of 1009 total

Prievidza CTAF/UNICOM: 123.055

LZPP Ground/Tower (Archives)
Piestany, Slovakia

Feed Status: UP
Listen in your browser - HTML5 player(in browser, HTML5)
Click here to listen with your own player(launches your MP3 player)

LZPP 200130Z AUTO 13009KT 9999 -RA OVC076/// 15/12 Q1003

LZPP Flight Activity (Flightaware)

Listeners: 0 out of 1009 total

Piestany Ground: 121.700
Piestany Tower: 118.575

LZPT CTAF (Archives)
Partizanske, Slovakia

Feed Status: UP
Listen in your browser - HTML5 player(in browser, HTML5)
Click here to listen with your own player(launches your MP3 player)

LZPT Flight Activity (Flightaware)

Listeners: 0 out of 1009 total

Male Bielice CTAF: 123.500

UKKK Gnd/Twr/ACC (Archives)
Kyiv, Ukraine

Feed Status: UP
Listen in your browser - HTML5 player(in browser, HTML5)
Click here to listen with your own player(launches your MP3 player)

UKKK 200100Z 11005MPS CAVOK 17/07 Q1015 R08/CLRD70 NOSIG

UKKK Flight Activity (Flightaware)

Listeners: 0 out of 1009 total

Emergency/Guard: 121.500
Kyiv Radar ACC: 122.775
Kyiv Radar ACC: 124.675
Kyiv Radar ACC: 127.725
Kyiv Radar ACC: 128.175
Kyiv Radar ACC: 125.300
Kyiv Zhuliany Ground: 119.000
Kyiv Zhuliany Tower: 120.700

URKK Gnd/Twr/App (Archives)
Krasnodar, Russia

Feed Status: UP
Listen in your browser - HTML5 player(in browser, HTML5)
Click here to listen with your own player(launches your MP3 player)

URKK 200100Z 22004MPS 9999 VCTS -SHRA SCT018 BKN030CB 18/16 Q1013 R23L/CLRD70 TEMPO VRB09G16MPS 1000 TSRA BKN004 BKN020CB RMK QFE756

URKK Flight Activity (Flightaware)

Listeners: 1 out of 1009 total

Krasnodar Approach: 129.600
Krasnodar Ground: 119.000
Krasnodar Radar: 121.300
Krasnodar Tower: 118.200

URMT Twr/App/Control (Archives)
Stavropol, Russia

Feed Status: UP
Listen in your browser - HTML5 player(in browser, HTML5)
Click here to listen with your own player(launches your MP3 player)

URMT 200100Z 03003MPS 9999 FEW040 16/12 Q1014 R07/010070 TEMPO 0300 FG OVC002 RMK QFE720

URMT Flight Activity (Flightaware)

Listeners: 0 out of 1009 total

Stavropol Approach: 120.300
Stavropol Control: 118.250
Stavropol Tower: 120.900

URSS Gnd/Twr/App (Archives)
Sochi, Russia

Feed Status: UP
Listen in your browser - HTML5 player(in browser, HTML5)
Click here to listen with your own player(launches your MP3 player)

URSS 200100Z 05002MPS 9999 FEW012 OVC040CB 18/16 Q1014 R02/010070 R06/010070 NOSIG RMK R06/06001MPS MT OBSC QFE759

URSS Flight Activity (Flightaware)

Listeners: 1 out of 1009 total

Sochi Approach: 118.300
Sochi Approach: 119.700
Sochi District (Small Aircraft): 118.500
Sochi Start: 121.200
Sochi Taxi: 119.000
Sochi Tower: 124.600

USDD Gnd/Twr/App/Control (Archives)
Salekhard, Russia

Feed Status: UP
Listen in your browser - HTML5 player(in browser, HTML5)
Click here to listen with your own player(launches your MP3 player)

USDD 150530Z 05007MPS 9999 -SHRA BKN009CB 09/07 Q1002 R04/290060 NOSIG RMK QFE746/0994

USDD Flight Activity (Flightaware)

Listeners: 0 out of 1009 total

Salekhard Control: 132.300
Salekhard Ground: 118.800
Salekhard Info: 125.200
Salekhard Krug: 120.800
Salekhard Tower: 118.600
Salekhard Transit: 131.700

UUDD Twr/App
Moscow, Russia

Feed Status: DOWN
Offline since: 2019-05-01 08:56:02 UTC

UUDD 200100Z VRB01MPS CAVOK 06/02 Q1021 R32L/CLRD70 NOSIG

Domodedovo Tower: 118.600
Moscow Approach: 125.300
Moscow Approach: 127.700